KJ6MC Weather Reports


time (UTC)temp
C
wind
direction
speed
KPH
gust
KPH
rain 1hr
cm
rain 24hr
cm
rain mn
cm
humidity
%
barometer
mb
20220627200621 33 188 3.2 9.7 0.00 0.00 0.00 32 1015.4
20220627200520 33 264 3.2 9.7 0.00 0.00 0.00 31 1015.4
20220627200418 33 134 3.2 9.7 0.00 0.00 0.00 31 1015.3
20220627200316 33 138 3.2 9.7 0.00 0.00 0.00 32 1015.3
20220627200214 33 254 3.2 9.7 0.00 0.00 0.00 32 1015.3
20220627200114 33 271 4.8 9.7 0.00 0.00 0.00 32 1015.4
20220627200019 33 271 4.8 9.7 0.00 0.00 0.00 32 1015.4
20220627200012 33 267 4.8 9.7 0.00 0.00 0.00 32 1015.4
20220627195907 33 252 4.8 9.7 0.00 0.00 0.00 31 1015.4
20220627195806 32 222 4.8 9.7 0.00 0.00 0.00 31 1015.4
20220627195707 32 131 4.8 9.7 0.00 0.00 0.00 32 1015.5
20220627195605 32 153 3.2 9.7 0.00 0.00 0.00 33 1015.4
20220627195522 32 127 3.2 9.7 0.00 0.00 0.00 33 1015.4
20220627195506 32 126 3.2 9.7 0.00 0.00 0.00 33 1015.5
20220627195400 32 203 3.2 9.7 0.00 0.00 0.00 33 1015.5
20220627195302 33 183 3.2 9.7 0.00 0.00 0.00 32 1015.5
20220627195200 33 222 3.2 9.7 0.00 0.00 0.00 31 1015.5
20220627195100 33 208 1.6 9.7 0.00 0.00 0.00 31 1015.5
20220627195021 33 207 1.6 9.7 0.00 0.00 0.00 30 1015.5
20220627195000 33 183 1.6 9.7 0.00 0.00 0.00 30 1015.5
20220627194856 33 231 1.6 9.7 0.00 0.00 0.00 30 1015.5
20220627194757 33 210 1.6 4.8 0.00 0.00 0.00 32 1015.5
20220627194657 33 213 1.6 4.8 0.00 0.00 0.00 32 1015.5
20220627194556 33 211 1.6 4.8 0.00 0.00 0.00 32 1015.5
20220627194519 33 243 1.6 6.4 0.00 0.00 0.00 32 1015.5
20220627194454 33 243 1.6 6.4 0.00 0.00 0.00 31 1015.5
20220627194354 33 147 1.6 8.0 0.00 0.00 0.00 31 1015.5
20220627194252 33 235 1.6 8.0 0.00 0.00 0.00 31 1015.5
20220627194153 33 231 1.6 9.7 0.00 0.00 0.00 32 1015.5
20220627194050 33 316 1.6 9.7 0.00 0.00 0.00 32 1015.6
20220627194020 33 316 1.6 9.7 0.00 0.00 0.00 32 1015.6
20220627193947 33 315 1.6 9.7 0.00 0.00 0.00 35 1015.6
20220627193849 32 47 1.6 9.7 0.00 0.00 0.00 35 1015.5
20220627193747 32 149 1.6 9.7 0.00 0.00 0.00 35 1015.6
20220627193646 32 229 1.6 9.7 0.00 0.00 0.00 33 1015.6
20220627193545 32 195 1.6 9.7 0.00 0.00 0.00 33 1015.6
20220627193518 32 200 1.6 9.7 0.00 0.00 0.00 33 1015.6
20220627193442 32 226 1.6 9.7 0.00 0.00 0.00 34 1015.6
20220627193338 32 161 1.6 9.7 0.00 0.00 0.00 33 1015.6
20220627193238 32 240 1.6 9.7 0.00 0.00 0.00 33 1015.7
20220627193138 32 201 1.6 8.0 0.00 0.00 0.00 37 1015.6
20220627193038 32 13 1.6 8.0 0.00 0.00 0.00 36 1015.6
20220627193015 32 13 1.6 8.0 0.00 0.00 0.00 36 1015.6
20220627192936 32 108 1.6 8.0 0.00 0.00 0.00 37 1015.6
20220627192839 32 212 1.6 8.0 0.00 0.00 0.00 38 1015.6
20220627192735 31 217 1.6 8.0 0.00 0.00 0.00 38 1015.7
20220627192634 31 113 1.6 8.0 0.00 0.00 0.00 37 1015.6
20220627192533 31 214 1.6 8.0 0.00 0.00 0.00 37 1015.6
20220627192515 31 193 1.6 8.0 0.00 0.00 0.00 37 1015.6
20220627192430 31 238 1.6 6.4 0.00 0.00 0.00 37 1015.7
20220627192328 31 113 3.2 8.0 0.00 0.00 0.00 37 1015.7
20220627192229 31 197 3.2 8.0 0.00 0.00 0.00 39 1015.7
20220627192128 31 250 3.2 9.7 0.00 0.00 0.00 37 1015.7
20220627192015 31 200 3.2 9.7 0.00 0.00 0.00 37 1015.7
20220627191923 31 228 3.2 9.7 0.00 0.00 0.00 38 1015.7
20220627191822 31 291 3.2 9.7 0.00 0.00 0.00 38 1015.7
20220627191722 30 214 3.2 9.7 0.00 0.00 0.00 39 1015.7
20220627191624 30 207 3.2 9.7 0.00 0.00 0.00 39 1015.7
20220627191524 30 141 3.2 9.7 0.00 0.00 0.00 38 1015.7
20220627191514 30 143 3.2 9.7 0.00 0.00 0.00 38 1015.7
20220627191417 31 210 3.2 9.7 0.00 0.00 0.00 37 1015.7
20220627191314 31 214 3.2 9.7 0.00 0.00 0.00 37 1015.8
20220627191214 31 198 3.2 8.0 0.00 0.00 0.00 37 1015.7
20220627191114 31 149 3.2 8.0 0.00 0.00 0.00 37 1015.7
20220627191016 31 260 1.6 8.0 0.00 0.00 0.00 37 1015.8
20220627190913 30 207 1.6 8.0 0.00 0.00 0.00 38 1015.8
20220627190807 30 249 1.6 6.4 0.00 0.00 0.00 40 1015.8
20220627190708 30 133 3.2 6.4 0.00 0.00 0.00 39 1015.8
20220627190606 30 236 1.6 6.4 0.00 0.00 0.00 39 1015.8
20220627190512 30 224 1.6 6.4 0.00 0.00 0.00 38 1015.8
20220627190507 30 158 1.6 6.4 0.00 0.00 0.00 38 1015.8
20220627190406 30 156 1.6 6.4 0.00 0.00 0.00 38 1015.8
20220627190302 30 214 1.6 6.4 0.00 0.00 0.00 38 1015.8
20220627190201 30 232 1.6 11.3 0.00 0.00 0.00 38 1015.8
20220627190101 30 273 3.2 11.3 0.00 0.00 0.00 38 1015.8
20220627190010 29 262 3.2 11.3 0.00 0.00 0.00 39 1015.8
20220627190002 29 257 3.2 11.3 0.00 0.00 0.00 40 1015.8
20220627185859 29 240 3.2 11.3 0.00 0.00 0.00 40 1015.8
20220627185759 29 217 3.2 11.3 0.00 0.00 0.00 39 1015.9
20220627185656 29 235 3.2 11.3 0.00 0.00 0.00 41 1015.9
20220627185556 29 262 4.8 11.3 0.00 0.00 0.00 41 1015.9
20220627185509 29 248 4.8 11.3 0.00 0.00 0.00 41 1015.9
20220627185457 29 283 4.8 11.3 0.00 0.00 0.00 41 1015.9
20220627185354 28 186 4.8 11.3 0.00 0.00 0.00 41 1015.9
20220627185248 28 184 4.8 11.3 0.00 0.00 0.00 41 1015.9
20220627185152 28 158 4.8 11.3 0.00 0.00 0.00 41 1015.9
20220627185048 28 236 4.8 11.3 0.00 0.00 0.00 40 1015.9
20220627185008 28 193 4.8 11.3 0.00 0.00 0.00 40 1015.9
20220627184948 28 203 4.8 11.3 0.00 0.00 0.00 40 1015.9
20220627184848 28 222 4.8 12.9 0.00 0.00 0.00 40 1015.9
20220627184746 28 250 4.8 12.9 0.00 0.00 0.00 40 1015.9
20220627184647 29 150 3.2 12.9 0.00 0.00 0.00 39 1015.9
20220627184546 29 211 3.2 12.9 0.00 0.00 0.00 38 1015.9
20220627184507 29 219 3.2 12.9 0.00 0.00 0.00 40 1015.9
20220627184445 29 243 3.2 12.9 0.00 0.00 0.00 42 1015.9
20220627184342 29 296 4.8 12.9 0.00 0.00 0.00 40 1016.0
20220627184236 29 224 4.8 12.9 0.00 0.00 0.00 40 1015.9
20220627184136 29 203 3.2 12.9 0.00 0.00 0.00 40 1015.9
20220627184037 29 236 3.2 12.9 0.00 0.00 0.00 41 1015.9
20220627184008 29 153 3.2 12.9 0.00 0.00 0.00 40 1015.9
20220627183938 29 260 3.2 12.9 0.00 0.00 0.00 40 1015.9
20220627183835 29 245 3.2 12.9 0.00 0.00 0.00 42 1015.9
20220627183731 28 315 3.2 12.9 0.00 0.00 0.00 42 1015.9
20220627183630 28 161 4.8 12.9 0.00 0.00 0.00 41 1015.9
20220627183528 29 217 3.2 12.9 0.00 0.00 0.00 40 1015.9
20220627183507 29 142 3.2 12.9 0.00 0.00 0.00 40 1015.9
20220627183429 29 162 3.2 12.9 0.00 0.00 0.00 40 1015.9
20220627183328 29 232 1.6 9.7 0.00 0.00 0.00 40 1015.9
20220627183224 29 222 1.6 9.7 0.00 0.00 0.00 41 1015.9
20220627183125 29 232 1.6 9.7 0.00 0.00 0.00 40 1016.0
20220627183024 29 246 1.6 9.7 0.00 0.00 0.00 40 1015.9
20220627183002 29 228 1.6 9.7 0.00 0.00 0.00 41 1015.9
20220627182926 29 231 1.6 9.7 0.00 0.00 0.00 41 1015.9
20220627182823 29 213 1.6 6.4 0.00 0.00 0.00 41 1015.9
20220627182716 29 221 1.6 6.4 0.00 0.00 0.00 41 1015.9
20220627182628 29 242 0.0 4.8 0.00 0.00 0.00 42 1016.0
20220627182516 29 260 0.0 4.8 0.00 0.00 0.00 43 1016.0
20220627182455 29 260 0.0 4.8 0.00 0.00 0.00 43 1016.0
20220627182416 29 260 0.0 4.8 0.00 0.00 0.00 43 1016.0
20220627182316 29 260 0.0 4.8 0.00 0.00 0.00 43 1016.0
20220627182212 29 307 0.0 4.8 0.00 0.00 0.00 43 1016.0
20220627182113 29 311 1.6 4.8 0.00 0.00 0.00 44 1016.0
20220627182017 29 312 0.0 4.8 0.00 0.00 0.00 42 1016.0
20220627181949 28 195 0.0 4.8 0.00 0.00 0.00 43 1016.0
20220627181912 28 240 0.0 4.8 0.00 0.00 0.00 43 1016.0
20220627181810 28 176 1.6 4.8 0.00 0.00 0.00 43 1016.0
20220627181704 28 250 1.6 9.7 0.00 0.00 0.00 44 1016.0
20220627181604 28 250 1.6 9.7 0.00 0.00 0.00 44 1016.1
20220627181505 28 259 1.6 9.7 0.00 0.00 0.00 44 1016.0
20220627181443 28 197 1.6 9.7 0.00 0.00 0.00 45 1016.0
20220627181405 28 245 1.6 9.7 0.00 0.00 0.00 45 1016.0
20220627181304 28 290 1.6 9.7 0.00 0.00 0.00 46 1016.0
20220627181200 28 260 1.6 9.7 0.00 0.00 0.00 46 1015.9
20220627181059 28 264 1.6 9.7 0.00 0.00 0.00 46 1016.0
20220627180937 28 126 3.2 9.7 0.00 0.00 0.00 46 1016.0
20220627180857 28 125 3.2 9.7 0.00 0.00 0.00 46 1016.0
20220627180758 28 198 3.2 9.7 0.00 0.00 0.00 45 1016.0
20220627180655 28 229 1.6 8.0 0.00 0.00 0.00 45 1016.0
20220627180552 28 206 1.6 8.0 0.00 0.00 0.00 46 1015.9
20220627180455 28 229 1.6 8.0 0.00 0.00 0.00 46 1016.0
20220627180444 28 286 1.6 8.0 0.00 0.00 0.00 46 1016.0
20220627180352 28 221 1.6 8.0 0.00 0.00 0.00 46 1015.9
20220627180253 28 215 1.6 6.4 0.00 0.00 0.00 46 1015.9
20220627180151 27 130 1.6 6.4 0.00 0.00 0.00 48 1016.0
20220627180048 27 113 1.6 6.4 0.00 0.00 0.00 48 1016.0
20220627175949 27 114 1.6 6.4 0.00 0.00 0.00 47 1016.0
20220627175926 27 122 1.6 8.0 0.00 0.00 0.00 47 1016.0
20220627175849 27 105 1.6 8.0 0.00 0.00 0.00 47 1016.0
20220627175749 27 132 1.6 8.0 0.00 0.00 0.00 48 1016.0
20220627175644 27 203 1.6 8.0 0.00 0.00 0.00 49 1016.0
20220627175545 27 217 1.6 8.0 0.00 0.00 0.00 49 1015.9
20220627175444 27 242 1.6 8.0 0.00 0.00 0.00 49 1016.0
20220627175421 26 242 1.6 8.0 0.00 0.00 0.00 49 1016.0
20220627175342 26 193 1.6 8.0 0.00 0.00 0.00 49 1016.0
20220627175241 26 124 3.2 8.0 0.00 0.00 0.00 49 1016.0
20220627175138 26 142 3.2 9.7 0.00 0.00 0.00 48 1016.0
20220627175038 26 228 3.2 9.7 0.00 0.00 0.00 48 1016.0
20220627174936 26 203 3.2 9.7 0.00 0.00 0.00 49 1016.0
20220627174913 26 194 3.2 9.7 0.00 0.00 0.00 49 1016.0
20220627174837 26 256 1.6 9.7 0.00 0.00 0.00 48 1016.0
20220627174734 26 252 1.6 9.7 0.00 0.00 0.00 48 1016.0
20220627174635 26 144 1.6 9.7 0.00 0.00 0.00 49 1016.0
20220627174537 26 198 1.6 9.7 0.00 0.00 0.00 48 1016.1
20220627174432 26 203 1.6 12.9 0.00 0.00 0.00 48 1016.1
20220627174407 26 222 1.6 12.9 0.00 0.00 0.00 48 1016.0
20220627174329 26 183 1.6 12.9 0.00 0.00 0.00 48 1016.0
20220627174228 26 194 1.6 12.9 0.00 0.00 0.00 49 1016.1
20220627174124 26 149 1.6 12.9 0.00 0.00 0.00 50 1016.1
20220627174023 26 279 1.6 12.9 0.00 0.00 0.00 49 1016.1
20220627173922 26 280 1.6 12.9 0.00 0.00 0.00 50 1016.0
20220627173901 26 279 1.6 12.9 0.00 0.00 0.00 50 1016.1
20220627173822 26 280 1.6 12.9 0.00 0.00 0.00 49 1016.1
20220627173722 26 226 1.6 12.9 0.00 0.00 0.00 49 1016.1
20220627173623 26 250 1.6 12.9 0.00 0.00 0.00 49 1016.1
20220627173522 26 184 1.6 12.9 0.00 0.00 0.00 49 1016.1
20220627173423 26 264 1.6 4.8 0.00 0.00 0.00 50 1016.1
20220627173355 26 283 1.6 4.8 0.00 0.00 0.00 50 1016.1
20220627173322 26 285 1.6 4.8 0.00 0.00 0.00 49 1016.1
20220627173220 25 300 1.6 4.8 0.00 0.00 0.00 49 1016.1
20220627173121 25 263 1.6 8.0 0.00 0.00 0.00 50 1016.1
20220627173020 25 236 3.2 12.9 0.00 0.00 0.00 50 1016.1
20220627172921 25 160 3.2 12.9 0.00 0.00 0.00 50 1016.1
20220627172850 25 183 3.2 12.9 0.00 0.00 0.00 50 1016.1
20220627172821 25 158 3.2 12.9 0.00 0.00 0.00 50 1016.1
20220627172720 25 149 3.2 12.9 0.00 0.00 0.00 51 1016.1
20220627172618 25 236 3.2 12.9 0.00 0.00 0.00 51 1016.2
20220627172516 25 284 4.8 12.9 0.00 0.00 0.00 52 1016.2
20220627172415 25 219 4.8 12.9 0.00 0.00 0.00 53 1016.2
20220627172343 25 240 4.8 12.9 0.00 0.00 0.00 53 1016.2
20220627172314 25 257 4.8 12.9 0.00 0.00 0.00 52 1016.2
20220627172214 25 211 4.8 12.9 0.00 0.00 0.00 52 1016.2
20220627172115 25 250 4.8 12.9 0.00 0.00 0.00 52 1016.2
20220627172014 25 185 3.2 11.3 0.00 0.00 0.00 52 1016.1
20220627171915 25 217 3.2 11.3 0.00 0.00 0.00 52 1016.1
20220627171843 25 130 3.2 11.3 0.00 0.00 0.00 52 1016.2
20220627171815 25 162 3.2 11.3 0.00 0.00 0.00 52 1016.2
20220627171715 25 197 3.2 11.3 0.00 0.00 0.00 52 1016.2
20220627171616 25 190 3.2 11.3 0.00 0.00 0.00 53 1016.2
20220627171516 25 214 3.2 8.0 0.00 0.00 0.00 53 1016.2
20220627171413 25 193 3.2 11.3 0.00 0.00 0.00 53 1016.2
20220627171343 25 196 3.2 11.3 0.00 0.00 0.00 54 1016.1
20220627171312 25 219 3.2 11.3 0.00 0.00 0.00 54 1016.1
20220627171212 24 169 3.2 11.3 0.00 0.00 0.00 54 1016.2
20220627171113 24 200 3.2 11.3 0.00 0.00 0.00 54 1016.1
20220627171010 24 191 3.2 11.3 0.00 0.00 0.00 54 1016.1
20220627170910 24 263 3.2 11.3 0.00 0.00 0.00 54 1016.1
20220627170845 24 145 3.2 11.3 0.00 0.00 0.00 54 1016.1
20220627170810 24 190 3.2 11.3 0.00 0.00 0.00 54 1016.1
20220627170711 24 156 3.2 11.3 0.00 0.00 0.00 55 1016.1
20220627170610 24 215 3.2 11.3 0.00 0.00 0.00 55 1016.1
20220627170509 24 210 3.2 9.7 0.00 0.00 0.00 55 1016.1
20220627170408 24 204 3.2 6.4 0.00 0.00 0.00 55 1016.1
20220627170341 24 131 3.2 6.4 0.00 0.00 0.00 55 1016.1
20220627170308 24 134 3.2 6.4 0.00 0.00 0.00 55 1016.1
20220627170208 24 129 3.2 6.4 0.00 0.00 0.00 55 1016.1
20220627170110 23 155 1.6 6.4 0.00 0.00 0.00 56 1016.1
20220627170008 23 119 3.2 6.4 0.00 0.00 0.00 55 1016.2
20220627165908 23 146 3.2 8.0 0.00 0.00 0.00 55 1016.2
20220627165841 23 208 1.6 8.0 0.00 0.00 0.00 55 1016.2
20220627165807 23 245 1.6 8.0 0.00 0.00 0.00 55 1016.2
20220627165706 23 228 1.6 8.0 0.00 0.00 0.00 56 1016.2
20220627165606 23 250 1.6 8.0 0.00 0.00 0.00 56 1016.3
20220627165507 23 217 1.6 8.0 0.00 0.00 0.00 57 1016.2
20220627165405 23 194 3.2 8.0 0.00 0.00 0.00 57 1016.3
20220627165340 23 236 3.2 8.0 0.00 0.00 0.00 57 1016.3
20220627165306 23 236 3.2 8.0 0.00 0.00 0.00 58 1016.2
20220627165206 23 231 3.2 8.0 0.00 0.00 0.00 58 1016.2
20220627165106 23 158 3.2 8.0 0.00 0.00 0.00 58 1016.3
20220627165005 23 195 3.2 8.0 0.00 0.00 0.00 59 1016.3
20220627164904 23 129 3.2 8.0 0.00 0.00 0.00 60 1016.3
20220627164842 23 131 3.2 8.0 0.00 0.00 0.00 60 1016.3
20220627164804 22 129 3.2 8.0 0.00 0.00 0.00 60 1016.3
20220627164704 22 193 3.2 8.0 0.00 0.00 0.00 59 1016.4
20220627164604 22 138 3.2 8.0 0.00 0.00 0.00 60 1016.3
20220627164505 22 143 3.2 8.0 0.00 0.00 0.00 60 1016.4
20220627164404 22 165 4.8 11.3 0.00 0.00 0.00 60 1016.5
20220627164341 22 197 4.8 11.3 0.00 0.00 0.00 60 1016.5
20220627164305 22 176 4.8 11.3 0.00 0.00 0.00 60 1016.4
20220627164204 22 195 4.8 11.3 0.00 0.00 0.00 61 1016.4
20220627164104 22 153 3.2 11.3 0.00 0.00 0.00 61 1016.4
20220627163958 22 150 3.2 11.3 0.00 0.00 0.00 61 1016.4
20220627163858 22 200 3.2 11.3 0.00 0.00 0.00 61 1016.5
20220627163840 22 145 3.2 11.3 0.00 0.00 0.00 61 1016.5
20220627163755 22 122 4.8 11.3 0.00 0.00 0.00 61 1016.5
20220627163657 22 120 3.2 11.3 0.00 0.00 0.00 61 1016.4
20220627163557 22 172 3.2 11.3 0.00 0.00 0.00 61 1016.5
20220627163457 22 231 4.8 11.3 0.00 0.00 0.00 62 1016.5
20220627163356 22 162 4.8 12.9 0.00 0.00 0.00 62 1016.5
20220627163338 22 190 4.8 12.9 0.00 0.00 0.00 62 1016.5
20220627163256 22 221 4.8 12.9 0.00 0.00 0.00 62 1016.4
20220627163157 21 186 4.8 12.9 0.00 0.00 0.00 63 1016.4
20220627163057 21 141 4.8 12.9 0.00 0.00 0.00 63 1016.5
20220627162954 21 217 4.8 12.9 0.00 0.00 0.00 63 1016.4
20220627162853 21 193 4.8 12.9 0.00 0.00 0.00 63 1016.4
20220627162837 21 207 4.8 12.9 0.00 0.00 0.00 63 1016.4
20220627162754 21 231 4.8 12.9 0.00 0.00 0.00 64 1016.5
20220627162652 21 233 4.8 12.9 0.00 0.00 0.00 64 1016.4
20220627162551 21 145 4.8 12.9 0.00 0.00 0.00 63 1016.4
20220627162453 21 214 4.8 12.9 0.00 0.00 0.00 63 1016.5
20220627162352 21 210 4.8 11.3 0.00 0.00 0.00 63 1016.4
20220627162342 21 214 4.8 11.3 0.00 0.00 0.00 63 1016.4
20220627162252 21 249 4.8 11.3 0.00 0.00 0.00 64 1016.4
20220627162153 21 195 4.8 11.3 0.00 0.00 0.00 64 1016.4
20220627162052 21 169 4.8 11.3 0.00 0.00 0.00 64 1016.4
20220627161952 21 225 4.8 11.3 0.00 0.00 0.00 64 1016.4
20220627161855 21 169 4.8 11.3 0.00 0.00 0.00 64 1016.4
20220627161845 21 211 4.8 11.3 0.00 0.00 0.00 65 1016.4
20220627161747 21 217 4.8 9.7 0.00 0.00 0.00 65 1016.4
20220627161646 21 127 4.8 9.7 0.00 0.00 0.00 65 1016.4
20220627161546 21 278 4.8 9.7 0.00 0.00 0.00 65 1016.4
20220627161446 21 188 4.8 9.7 0.00 0.00 0.00 65 1016.4
20220627161347 21 121 4.8 9.7 0.00 0.00 0.00 65 1016.4
20220627161334 21 143 4.8 9.7 0.00 0.00 0.00 65 1016.4
20220627161246 21 219 4.8 9.7 0.00 0.00 0.00 65 1016.4
20220627161146 21 203 4.8 9.7 0.00 0.00 0.00 66 1016.4
20220627161047 21 187 4.8 9.7 0.00 0.00 0.00 66 1016.4
20220627160946 21 153 4.8 9.7 0.00 0.00 0.00 66 1016.5
20220627160847 21 219 4.8 9.7 0.00 0.00 0.00 65 1016.4
20220627160834 21 212 4.8 9.7 0.00 0.00 0.00 65 1016.4
20220627160747 20 210 4.8 9.7 0.00 0.00 0.00 66 1016.5
20220627160646 20 203 4.8 9.7 0.00 0.00 0.00 65 1016.5
20220627160546 20 222 4.8 11.3 0.00 0.00 0.00 65 1016.5
20220627160447 20 215 4.8 11.3 0.00 0.00 0.00 66 1016.4
20220627160349 20 215 4.8 11.3 0.00 0.00 0.00 66 1016.4
20220627160338 20 199 4.8 11.3 0.00 0.00 0.00 66 1016.4
20220627160245 20 144 4.8 11.3 0.00 0.00 0.00 65 1016.4
20220627160146 20 203 4.8 11.3 0.00 0.00 0.00 66 1016.4
20220627160042 20 170 4.8 11.3 0.00 0.00 0.00 66 1016.3
20220627155942 20 136 4.8 11.3 0.00 0.00 0.00 66 1016.3
20220627155843 20 143 4.8 11.3 0.00 0.00 0.00 66 1016.3
20220627155833 20 141 4.8 11.3 0.00 0.00 0.00 66 1016.3
20220627155743 20 149 3.2 11.3 0.00 0.00 0.00 66 1016.3
20220627155640 20 188 3.2 11.3 0.00 0.00 0.00 67 1016.4
20220627155541 20 146 3.2 8.0 0.00 0.00 0.00 67 1016.3
20220627155440 20 130 3.2 8.0 0.00 0.00 0.00 67 1016.3
20220627155344 20 156 3.2 8.0 0.00 0.00 0.00 66 1016.4
20220627155334 20 140 3.2 8.0 0.00 0.00 0.00 66 1016.4
20220627155241 20 130 3.2 8.0 0.00 0.00 0.00 66 1016.4
20220627155141 20 129 3.2 8.0 0.00 0.00 0.00 66 1016.4
20220627155040 20 155 3.2 8.0 0.00 0.00 0.00 66 1016.4
20220627154940 20 193 3.2 8.0 0.00 0.00 0.00 67 1016.4
20220627154841 20 146 3.2 8.0 0.00 0.00 0.00 67 1016.4
20220627154831 20 162 3.2 8.0 0.00 0.00 0.00 67 1016.4
20220627154740 20 211 3.2 8.0 0.00 0.00 0.00 67 1016.3
20220627154639 20 179 4.8 8.0 0.00 0.00 0.00 67 1016.4
20220627154538 20 150 4.8 8.0 0.00 0.00 0.00 67 1016.3
20220627154438 20 184 4.8 8.0 0.00 0.00 0.00 67 1016.4
20220627154337 20 155 3.2 9.7 0.00 0.00 0.00 67 1016.3
20220627154232 20 183 3.2 9.7 0.00 0.00 0.00 68 1016.3
20220627154132 20 159 4.8 9.7 0.00 0.00 0.00 68 1016.3
20220627154032 20 147 3.2 9.7 0.00 0.00 0.00 67 1016.4
20220627153932 20 217 3.2 9.7 0.00 0.00 0.00 67 1016.4
20220627153833 20 129 3.2 9.7 0.00 0.00 0.00 67 1016.3
20220627153828 20 131 3.2 9.7 0.00 0.00 0.00 68 1016.3
20220627153726 20 150 3.2 9.7 0.00 0.00 0.00 68 1016.4
20220627153626 20 138 3.2 9.7 0.00 0.00 0.00 68 1016.3
20220627153525 20 193 3.2 9.7 0.00 0.00 0.00 68 1016.3
20220627153426 19 163 3.2 9.7 0.00 0.00 0.00 68 1016.3
20220627153329 19 158 3.2 8.0 0.00 0.00 0.00 68 1016.3
20220627153324 19 167 3.2 8.0 0.00 0.00 0.00 69 1016.3
20220627153222 19 136 3.2 8.0 0.00 0.00 0.00 68 1016.3
20220627153123 19 224 3.2 8.0 0.00 0.00 0.00 68 1016.3
20220627153022 19 248 3.2 8.0 0.00 0.00 0.00 68 1016.3
20220627152920 19 181 3.2 8.0 0.00 0.00 0.00 68 1016.3
20220627152829 19 181 3.2 8.0 0.00 0.00 0.00 68 1016.3
20220627152814 19 211 3.2 8.0 0.00 0.00 0.00 68 1016.3
20220627152713 19 160 3.2 8.0 0.00 0.00 0.00 68 1016.3
20220627152616 19 208 3.2 6.4 0.00 0.00 0.00 68 1016.3
20220627152514 19 138 4.8 8.0 0.00 0.00 0.00 67 1016.3
20220627152414 19 162 3.2 8.0 0.00 0.00 0.00 67 1016.3
20220627152329 19 165 3.2 8.0 0.00 0.00 0.00 67 1016.3
20220627152308 19 191 3.2 8.0 0.00 0.00 0.00 67 1016.2
20220627152208 19 208 3.2 8.0 0.00 0.00 0.00 67 1016.3
20220627152109 19 246 3.2 8.0 0.00 0.00 0.00 67 1016.2
20220627152008 19 224 3.2 8.0 0.00 0.00 0.00 67 1016.2
20220627151909 20 245 1.6 8.0 0.00 0.00 0.00 67 1016.2
20220627151828 20 188 1.6 8.0 0.00 0.00 0.00 67 1016.2
20220627151802 20 248 1.6 8.0 0.00 0.00 0.00 67 1016.2
20220627151702 20 195 1.6 8.0 0.00 0.00 0.00 66 1016.1
20220627151602 20 174 1.6 6.4 0.00 0.00 0.00 66 1016.1
20220627151501 20 231 1.6 6.4 0.00 0.00 0.00 67 1016.2
20220627151402 20 162 1.6 4.8 0.00 0.00 0.00 67 1016.2
20220627151328 20 123 1.6 4.8 0.00 0.00 0.00 68 1016.2
20220627151255 19 211 1.6 6.4 0.00 0.00 0.00 68 1016.2
20220627151156 19 140 1.6 6.4 0.00 0.00 0.00 68 1016.1
20220627151056 19 188 1.6 6.4 0.00 0.00 0.00 68 1016.1
20220627150958 19 217 1.6 6.4 0.00 0.00 0.00 68 1016.1
20220627150828 19 224 3.2 9.7 0.00 0.00 0.00 68 1016.1
20220627150754 19 222 3.2 9.7 0.00 0.00 0.00 68 1016.1
20220627150657 19 212 3.2 9.7 0.00 0.00 0.00 68 1016.1
20220627150554 18 158 3.2 9.7 0.00 0.00 0.00 68 1016.2
20220627150452 18 142 3.2 9.7 0.00 0.00 0.00 68 1016.2
20220627150328 19 248 3.2 9.7 0.00 0.00 0.00 67 1016.2
20220627150246 19 207 3.2 9.7 0.00 0.00 0.00 67 1016.2
20220627150146 19 240 3.2 9.7 0.00 0.00 0.00 66 1016.2
20220627150044 19 222 1.6 9.7 0.00 0.00 0.00 66 1016.2
20220627145944 19 160 1.6 9.7 0.00 0.00 0.00 66 1016.2
20220627145844 19 154 1.6 6.4 0.00 0.00 0.00 66 1016.1
20220627145827 19 132 1.6 6.4 0.00 0.00 0.00 66 1016.1
20220627145741 19 204 1.6 6.4 0.00 0.00 0.00 66 1016.1
20220627145642 19 150 1.6 6.4 0.00 0.00 0.00 66 1016.1
20220627145543 19 139 1.6 6.4 0.00 0.00 0.00 67 1016.1
20220627145441 19 162 1.6 4.8 0.00 0.00 0.00 67 1016.0
20220627145347 19 212 1.6 6.4 0.00 0.00 0.00 67 1016.0
20220627145327 19 213 1.6 6.4 0.00 0.00 0.00 67 1016.0
20220627145233 19 150 1.6 6.4 0.00 0.00 0.00 67 1016.0
20220627145133 19 224 1.6 6.4 0.00 0.00 0.00 67 1016.0
20220627145032 19 224 3.2 6.4 0.00 0.00 0.00 67 1016.0
20220627144932 19 208 3.2 6.4 0.00 0.00 0.00 67 1016.1
20220627144831 19 204 3.2 6.4 0.00 0.00 0.00 66 1016.0
20220627144726 19 197 1.6 6.4 0.00 0.00 0.00 66 1016.0
20220627144624 19 149 1.6 6.4 0.00 0.00 0.00 66 1016.0
20220627144525 19 256 1.6 6.4 0.00 0.00 0.00 66 1016.0
20220627144424 19 145 1.6 6.4 0.00 0.00 0.00 65 1016.0
20220627144329 19 179 1.6 6.4 0.00 0.00 0.00 65 1016.0
20220627144323 19 162 1.6 6.4 0.00 0.00 0.00 65 1016.0
20220627144218 19 163 1.6 6.4 0.00 0.00 0.00 65 1016.0
20220627144118 19 177 1.6 6.4 0.00 0.00 0.00 66 1015.9
20220627144018 19 193 0.0 6.4 0.00 0.00 0.00 67 1016.0
20220627143921 19 197 0.0 4.8 0.00 0.00 0.00 67 1015.9
20220627143824 19 195 0.0 4.8 0.00 0.00 0.00 67 1015.9
20220627143818 19 155 0.0 4.8 0.00 0.00 0.00 67 1015.9
20220627143718 19 193 0.0 4.8 0.00 0.00 0.00 67 1015.9
20220627143617 19 197 0.0 1.6 0.00 0.00 0.00 67 1015.9
20220627143516 19 197 0.0 1.6 0.00 0.00 0.00 68 1015.9
20220627143414 19 197 0.0 1.6 0.00 0.00 0.00 68 1015.9
20220627143324 18 197 0.0 1.6 0.00 0.00 0.00 68 1015.9
20220627143312 18 197 0.0 1.6 0.00 0.00 0.00 68 1015.8
20220627143208 18 197 0.0 1.6 0.00 0.00 0.00 68 1015.8
20220627143108 18 197 0.0 3.2 0.00 0.00 0.00 69 1015.8
20220627143010 18 197 0.0 3.2 0.00 0.00 0.00 70 1015.8
20220627142908 18 197 0.0 3.2 0.00 0.00 0.00 70 1015.9
20220627142821 18 198 0.0 3.2 0.00 0.00 0.00 70 1015.9
20220627142807 18 198 0.0 3.2 0.00 0.00 0.00 70 1015.8
20220627142700 18 198 0.0 3.2 0.00 0.00 0.00 70 1015.9
20220627142600 18 207 0.0 3.2 0.00 0.00 0.00 70 1015.9
20220627142500 18 141 0.0 3.2 0.00 0.00 0.00 71 1015.9
20220627142400 18 141 1.6 3.2 0.00 0.00 0.00 71 1015.9
20220627142320 18 188 1.6 3.2 0.00 0.00 0.00 71 1015.9
20220627142300 18 193 0.0 3.2 0.00 0.00 0.00 71 1015.9
20220627142200 18 211 0.0 3.2 0.00 0.00 0.00 70 1015.9
20220627142059 18 207 1.6 3.2 0.00 0.00 0.00 71 1015.9
20220627141957 18 211 1.6 3.2 0.00 0.00 0.00 71 1015.9
20220627141855 18 194 1.6 3.2 0.00 0.00 0.00 71 1015.9
20220627141820 18 144 1.6 3.2 0.00 0.00 0.00 71 1015.9
20220627141754 17 193 1.6 3.2 0.00 0.00 0.00 72 1015.9
20220627141652 17 193 1.6 4.8 0.00 0.00 0.00 72 1015.8
20220627141548 17 134 1.6 6.4 0.00 0.00 0.00 73 1015.8
20220627141445 17 127 1.6 6.4 0.00 0.00 0.00 73 1015.7
20220627141346 17 117 1.6 6.4 0.00 0.00 0.00 73 1015.8
20220627141319 17 144 1.6 6.4 0.00 0.00 0.00 73 1015.8
20220627141247 17 155 3.2 6.4 0.00 0.00 0.00 73 1015.8
20220627141146 17 163 3.2 6.4 0.00 0.00 0.00 73 1015.9
20220627141044 17 138 3.2 6.4 0.00 0.00 0.00 74 1015.9
20220627140944 17 150 3.2 6.4 0.00 0.00 0.00 74 1015.9
20220627140842 17 206 3.2 6.4 0.00 0.00 0.00 74 1015.9
20220627140819 17 205 3.2 6.4 0.00 0.00 0.00 74 1015.9
20220627140740 17 200 1.6 6.4 0.00 0.00 0.00 74 1015.8
20220627140636 17 235 1.6 6.4 0.00 0.00 0.00 73 1015.8
20220627140536 17 228 1.6 6.4 0.00 0.00 0.00 74 1015.8
20220627140439 17 243 1.6 6.4 0.00 0.00 0.00 74 1015.8
20220627140319 17 248 1.6 6.4 0.00 0.00 0.00 74 1015.8
20220627140236 17 243 1.6 6.4 0.00 0.00 0.00 74 1015.8
20220627140136 17 235 1.6 6.4 0.00 0.00 0.00 74 1015.8
20220627140036 17 238 3.2 6.4 0.00 0.00 0.00 75 1015.8
20220627135936 17 221 3.2 6.4 0.00 0.00 0.00 75 1015.8
20220627135833 16 217 3.2 6.4 0.00 0.00 0.00 75 1015.8
20220627135819 16 214 3.2 6.4 0.00 0.00 0.00 75 1015.8
20220627135734 16 232 3.2 6.4 0.00 0.00 0.00 75 1015.7
20220627135633 16 222 3.2 6.4 0.00 0.00 0.00 75 1015.8
20220627135533 16 151 3.2 6.4 0.00 0.00 0.00 75 1015.8
20220627135432 16 210 3.2 6.4 0.00 0.00 0.00 75 1015.7
20220627135332 16 222 3.2 6.4 0.00 0.00 0.00 75 1015.7
20220627135320 16 211 3.2 6.4 0.00 0.00 0.00 75 1015.7
20220627135234 16 228 1.6 6.4 0.00 0.00 0.00 75 1015.7
20220627135133 16 243 1.6 6.4 0.00 0.00 0.00 76 1015.8
20220627135031 16 211 1.6 6.4 0.00 0.00 0.00 76 1015.7
20220627134925 16 247 1.6 6.4 0.00 0.00 0.00 76 1015.7
20220627134830 16 256 1.6 6.4 0.00 0.00 0.00 76 1015.7
20220627134819 16 235 1.6 6.4 0.00 0.00 0.00 76 1015.7
20220627134727 16 236 1.6 6.4 0.00 0.00 0.00 76 1015.6
20220627134626 16 195 1.6 4.8 0.00 0.00 0.00 76 1015.6
20220627134525 16 221 1.6 4.8 0.00 0.00 0.00 76 1015.5
20220627134424 16 219 1.6 4.8 0.00 0.00 0.00 77 1015.6
20220627134329 16 226 1.6 4.8 0.00 0.00 0.00 77 1015.6
20220627134319 16 228 1.6 4.8 0.00 0.00 0.00 77 1015.6
20220627134223 16 150 1.6 4.8 0.00 0.00 0.00 78 1015.6
20220627134123 16 224 1.6 6.4 0.00 0.00 0.00 78 1015.6
20220627134022 16 150 1.6 6.4 0.00 0.00 0.00 79 1015.7
20220627133922 16 183 1.6 6.4 0.00 0.00 0.00 79 1015.6
20220627133824 16 169 1.6 6.4 0.00 0.00 0.00 79 1015.6
20220627133721 16 153 1.6 8.0 0.00 0.00 0.00 79 1015.5
20220627133622 16 235 1.6 8.0 0.00 0.00 0.00 80 1015.5
20220627133522 15 158 1.6 8.0 0.00 0.00 0.00 80 1015.5
20220627133421 15 228 1.6 8.0 0.00 0.00 0.00 80 1015.5
20220627133323 15 191 1.6 8.0 0.00 0.00 0.00 81 1015.5
20220627133222 15 211 1.6 8.0 0.00 0.00 0.00 81 1015.5
20220627133122 15 235 1.6 8.0 0.00 0.00 0.00 81 1015.4
20220627133022 15 195 1.6 8.0 0.00 0.00 0.00 81 1015.5
20220627132924 15 227 1.6 8.0 0.00 0.00 0.00 81 1015.4
20220627132823 15 203 1.6 8.0 0.00 0.00 0.00 81 1015.4
20220627132718 15 193 1.6 4.8 0.00 0.00 0.00 81 1015.4
20220627132618 15 205 1.6 4.8 0.00 0.00 0.00 81 1015.3
20220627132519 15 235 1.6 6.4 0.00 0.00 0.00 81 1015.3
20220627132418 15 226 1.6 6.4 0.00 0.00 0.00 82 1015.3
20220627132317 15 225 1.6 6.4 0.00 0.00 0.00 82 1015.3
20220627132211 15 253 0.0 6.4 0.00 0.00 0.00 82 1015.3
20220627132112 15 226 0.0 6.4 0.00 0.00 0.00 82 1015.3
20220627132010 15 232 0.0 6.4 0.00 0.00 0.00 82 1015.3
20220627131910 15 219 0.0 6.4 0.00 0.00 0.00 81 1015.2
20220627131813 15 236 0.0 6.4 0.00 0.00 0.00 81 1015.2
20220627131704 15 200 0.0 6.4 0.00 0.00 0.00 81 1015.1
20220627131605 15 200 0.0 6.4 0.00 0.00 0.00 81 1015.2
20220627131504 15 222 0.0 3.2 0.00 0.00 0.00 81 1015.2
20220627131405 15 228 0.0 3.2 0.00 0.00 0.00 81 1015.1
20220627131305 15 301 0.0 3.2 0.00 0.00 0.00 81 1015.2
20220627131202 15 300 0.0 3.2 0.00 0.00 0.00 81 1015.1
20220627131102 15 257 0.0 3.2 0.00 0.00 0.00 81 1015.2
20220627131001 15 190 1.6 6.4 0.00 0.00 0.00 81 1015.2
20220627130900 15 190 1.6 6.4 0.00 0.00 0.00 81 1015.1
20220627130759 15 270 1.6 6.4 0.00 0.00 0.00 81 1015.1
20220627130654 15 270 1.6 6.4 0.00 0.00 0.00 81 1015.2
20220627130552 15 270 1.6 6.4 0.00 0.00 0.00 81 1015.2
20220627130453 15 242 1.6 6.4 0.00 0.00 0.00 81 1015.2
20220627130352 15 221 1.6 6.4 0.00 0.00 0.00 81 1015.2
20220627130310 15 225 3.2 6.4 0.00 0.00 0.00 81 1015.2
20220627130252 15 198 3.2 6.4 0.00 0.00 0.00 81 1015.2
20220627130149 15 218 3.2 6.4 0.00 0.00 0.00 81 1015.2
20220627130051 15 254 3.2 6.4 0.00 0.00 0.00 81 1015.2
20220627125950 15 239 3.2 6.4 0.00 0.00 0.00 80 1015.2
20220627125849 15 239 3.2 9.7 0.00 0.00 0.00 80 1015.1
20220627125753 15 221 3.2 9.7 0.00 0.00 0.00 80 1015.2
20220627125746 15 226 3.2 9.7 0.00 0.00 0.00 80 1015.2
20220627125642 15 243 3.2 9.7 0.00 0.00 0.00 80 1015.1
20220627125539 15 252 3.2 9.7 0.00 0.00 0.00 80 1015.2
20220627125440 15 198 3.2 9.7 0.00 0.00 0.00 80 1015.1
20220627125340 15 214 3.2 9.7 0.00 0.00 0.00 80 1015.1
20220627125253 15 211 3.2 9.7 0.00 0.00 0.00 80 1015.0
20220627125239 15 226 3.2 9.7 0.00 0.00 0.00 80 1015.0
20220627125136 15 225 3.2 9.7 0.00 0.00 0.00 80 1015.0
20220627125034 15 228 3.2 9.7 0.00 0.00 0.00 80 1015.1
20220627124934 15 228 3.2 9.7 0.00 0.00 0.00 80 1015.1
20220627124834 15 212 3.2 9.7 0.00 0.00 0.00 79 1015.1
20220627124753 15 173 3.2 6.4 0.00 0.00 0.00 79 1015.0
20220627124734 15 231 3.2 6.4 0.00 0.00 0.00 79 1015.0
20220627124632 15 194 3.2 6.4 0.00 0.00 0.00 79 1015.0
20220627124534 15 250 1.6 6.4 0.00 0.00 0.00 79 1015.1
20220627124433 15 198 1.6 4.8 0.00 0.00 0.00 79 1015.0
20220627124330 15 224 1.6 4.8 0.00 0.00 0.00 79 1015.0
20220627124228 15 222 1.6 4.8 0.00 0.00 0.00 78 1015.0
20220627124127 15 211 1.6 4.8 0.00 0.00 0.00 78 1015.0
20220627124022 15 151 1.6 4.8 0.00 0.00 0.00 78 1015.0
20220627123923 15 150 1.6 4.8 0.00 0.00 0.00 78 1015.0
20220627123823 15 193 1.6 4.8 0.00 0.00 0.00 78 1015.0
20220627123751 15 192 1.6 4.8 0.00 0.00 0.00 78 1015.0
20220627123722 15 138 1.6 4.8 0.00 0.00 0.00 77 1015.0
20220627123619 15 208 1.6 4.8 0.00 0.00 0.00 77 1014.9
20220627123520 15 190 1.6 4.8 0.00 0.00 0.00 77 1014.9
20220627123418 15 205 1.6 3.2 0.00 0.00 0.00 77 1014.9
20220627123318 15 210 1.6 3.2 0.00 0.00 0.00 77 1015.0
20220627123251 15 226 1.6 3.2 0.00 0.00 0.00 77 1015.0
20220627123218 15 132 1.6 3.2 0.00 0.00 0.00 77 1015.0
20220627123117 15 132 1.6 3.2 0.00 0.00 0.00 76 1015.0
20220627123018 15 140 1.6 3.2 0.00 0.00 0.00 76 1015.0
20220627122920 15 162 1.6 3.2 0.00 0.00 0.00 76 1015.0
20220627122817 15 195 1.6 3.2 0.00 0.00 0.00 76 1015.0
20220627122749 15 195 1.6 4.8 0.00 0.00 0.00 76 1015.0
20220627122715 15 212 1.6 4.8 0.00 0.00 0.00 76 1015.0
20220627122616 15 183 1.6 6.4 0.00 0.00 0.00 76 1014.9
20220627122517 15 212 1.6 6.4 0.00 0.00 0.00 76 1014.9
20220627122416 15 129 1.6 8.0 0.00 0.00 0.00 76 1014.9
20220627122316 15 135 1.6 8.0 0.00 0.00 0.00 76 1014.9
20220627122247 15 134 1.6 8.0 0.00 0.00 0.00 76 1014.9
20220627122217 15 132 1.6 8.0 0.00 0.00 0.00 76 1014.9
20220627122116 15 133 1.6 8.0 0.00 0.00 0.00 76 1014.9
20220627122014 15 132 1.6 8.0 0.00 0.00 0.00 76 1014.9
20220627121914 15 195 1.6 8.0 0.00 0.00 0.00 76 1014.9
20220627121814 15 223 1.6 8.0 0.00 0.00 0.00 76 1014.8
20220627121747 15 212 1.6 8.0 0.00 0.00 0.00 76 1014.8
20220627121714 15 253 1.6 8.0 0.00 0.00 0.00 76 1014.8
20220627121614 15 216 1.6 8.0 0.00 0.00 0.00 76 1014.8
20220627121514 15 200 1.6 8.0 0.00 0.00 0.00 76 1014.8
20220627121410 15 218 1.6 8.0 0.00 0.00 0.00 75 1014.8
20220627121308 15 117 1.6 8.0 0.00 0.00 0.00 76 1014.8
20220627121248 15 105 1.6 8.0 0.00 0.00 0.00 76 1014.8
20220627121207 15 141 1.6 8.0 0.00 0.00 0.00 76 1014.7
20220627121108 16 194 1.6 8.0 0.00 0.00 0.00 75 1014.7
20220627121010 16 198 1.6 8.0 0.00 0.00 0.00 75 1014.7
20220627120902 16 198 1.6 8.0 0.00 0.00 0.00 75 1014.7
20220627120803 16 198 1.6 8.0 0.00 0.00 0.00 75 1014.7
20220627120747 16 155 1.6 8.0 0.00 0.00 0.00 75 1014.7
20220627120701 16 205 1.6 8.0 0.00 0.00 0.00 75 1014.7
20220627120604 16 229 1.6 8.0 0.00 0.00 0.00 75 1014.7
20220627120503 16 212 1.6 6.4 0.00 0.00 0.00 75 1014.6
20220627120359 16 221 1.6 6.4 0.00 0.00 0.00 75 1014.6
20220627120310 16 217 1.6 6.4 0.00 0.00 0.00 75 1014.7
20220627120301 16 219 1.6 6.4 0.00 0.00 0.00 75 1014.7
20220627120158 16 165 1.6 6.4 0.00 0.00 0.00 75 1014.7
20220627120058 16 210 1.6 6.4 0.00 0.00 0.00 75 1014.7
20220627115956 16 207 3.2 6.4 0.00 0.00 0.00 75 1014.7
20220627115853 16 226 3.2 6.4 0.00 0.00 0.00 75 1014.6
20220627115759 16 161 3.2 6.4 0.00 0.00 0.00 75 1014.6
20220627115749 16 162 3.2 6.4 0.00 0.00 0.00 75 1014.6
20220627115652 16 225 1.6 6.4 0.00 0.00 0.00 75 1014.6
20220627115549 16 225 1.6 6.4 0.00 0.00 0.00 75 1014.6
20220627115449 16 217 3.2 6.4 0.00 0.00 0.00 74 1014.6
20220627115349 16 203 1.6 6.4 0.00 0.00 0.00 74 1014.6
20220627115253 16 229 3.2 6.4 0.00 0.00 0.00 74 1014.5
20220627115150 16 223 3.2 6.4 0.00 0.00 0.00 74 1014.5
20220627115050 16 222 3.2 6.4 0.00 0.00 0.00 74 1014.5
20220627114950 16 212 3.2 6.4 0.00 0.00 0.00 73 1014.5
20220627114850 16 195 1.6 6.4 0.00 0.00 0.00 73 1014.5
20220627114751 16 215 1.6 6.4 0.00 0.00 0.00 73 1014.5
20220627114650 16 146 1.6 6.4 0.00 0.00 0.00 73 1014.5
20220627114550 16 217 1.6 6.4 0.00 0.00 0.00 73 1014.6
20220627114450 16 193 1.6 6.4 0.00 0.00 0.00 73 1014.5
20220627114351 16 205 1.6 6.4 0.00 0.00 0.00 73 1014.5
20220627114251 16 211 1.6 6.4 0.00 0.00 0.00 73 1014.5
20220627114147 16 176 1.6 4.8 0.00 0.00 0.00 72 1014.5
20220627114044 16 217 1.6 4.8 0.00 0.00 0.00 72 1014.5
20220627113943 16 226 1.6 4.8 0.00 0.00 0.00 72 1014.5
20220627113844 16 141 1.6 4.8 0.00 0.00 0.00 72 1014.4
20220627113748 16 159 1.6 3.2 0.00 0.00 0.00 72 1014.5
20220627113640 16 221 1.6 3.2 0.00 0.00 0.00 71 1014.5
20220627113538 16 148 1.6 4.8 0.00 0.00 0.00 71 1014.4
20220627113438 16 207 1.6 4.8 0.00 0.00 0.00 71 1014.4
20220627113338 16 238 1.6 4.8 0.00 0.00 0.00 71 1014.4
20220627113239 16 215 1.6 4.8 0.00 0.00 0.00 71 1014.4
20220627113132 16 214 1.6 4.8 0.00 0.00 0.00 71 1014.4
20220627113035 16 129 1.6 4.8 0.00 0.00 0.00 71 1014.4
20220627112932 16 224 1.6 4.8 0.00 0.00 0.00 71 1014.5
20220627112832 16 224 1.6 4.8 0.00 0.00 0.00 71 1014.5
20220627112733 16 224 1.6 4.8 0.00 0.00 0.00 71 1014.4
20220627112632 16 224 1.6 4.8 0.00 0.00 0.00 71 1014.4
20220627112531 16 221 1.6 4.8 0.00 0.00 0.00 71 1014.4
20220627112430 16 233 1.6 4.8 0.00 0.00 0.00 71 1014.4
20220627112327 16 217 3.2 8.0 0.00 0.00 0.00 71 1014.5
20220627112227 16 228 3.2 8.0 0.00 0.00 0.00 71 1014.4
20220627112126 16 215 3.2 8.0 0.00 0.00 0.00 71 1014.5
20220627112024 16 195 3.2 8.0 0.00 0.00 0.00 71 1014.4
20220627111924 16 217 1.6 8.0 0.00 0.00 0.00 71 1014.4
20220627111822 16 148 1.6 8.0 0.00 0.00 0.00 71 1014.5
20220627111721 16 162 1.6 8.0 0.00 0.00 0.00 71 1014.5
20220627111619 16 155 1.6 8.0 0.00 0.00 0.00 71 1014.4
20220627111516 16 194 1.6 8.0 0.00 0.00 0.00 71 1014.4
20220627111416 16 226 1.6 8.0 0.00 0.00 0.00 71 1014.4
20220627111316 16 183 1.6 4.8 0.00 0.00 0.00 71 1014.3
20220627111214 16 204 1.6 3.2 0.00 0.00 0.00 71 1014.4
20220627111112 16 212 1.6 3.2 0.00 0.00 0.00 71 1014.4
20220627111012 16 204 1.6 3.2 0.00 0.00 0.00 71 1014.4
20220627110912 16 195 0.0 3.2 0.00 0.00 0.00 70 1014.4
20220627110810 16 193 0.0 3.2 0.00 0.00 0.00 70 1014.4
20220627110709 16 193 1.6 3.2 0.00 0.00 0.00 70 1014.4
20220627110605 16 193 1.6 3.2 0.00 0.00 0.00 70 1014.4
20220627110502 16 176 1.6 3.2 0.00 0.00 0.00 70 1014.5
20220627110404 16 199 1.6 3.2 0.00 0.00 0.00 70 1014.4
20220627110302 16 198 1.6 3.2 0.00 0.00 0.00 70 1014.5
20220627110203 16 212 1.6 3.2 0.00 0.00 0.00 70 1014.4
20220627110100 16 203 1.6 3.2 0.00 0.00 0.00 70 1014.4
20220627110000 16 203 1.6 3.2 0.00 0.00 0.00 70 1014.4
20220627105900 16 203 1.6 3.2 0.00 0.00 0.00 70 1014.4
20220627105758 16 190 1.6 3.2 0.00 0.00 0.00 70 1014.4
20220627105656 16 141 1.6 3.2 0.00 0.00 0.00 69 1014.4
20220627105557 16 117 1.6 3.2 0.00 0.00 0.00 69 1014.4
20220627105454 16 110 1.6 3.2 0.00 0.00 0.00 69 1014.4
20220627105357 16 144 1.6 3.2 0.00 0.00 0.00 69 1014.5
20220627105252 16 124 1.6 4.8 0.00 0.00 0.00 69 1014.4
20220627105159 16 129 1.6 4.8 0.00 0.00 0.00 69 1014.4
20220627105151 16 130 1.6 4.8 0.00 0.00 0.00 69 1014.4
20220627105052 16 124 1.6 4.8 0.00 0.00 0.00 69 1014.4
20220627104952 16 169 1.6 4.8 0.00 0.00 0.00 69 1014.4
20220627104853 16 124 1.6 4.8 0.00 0.00 0.00 69 1014.4
20220627104749 16 124 1.6 4.8 0.00 0.00 0.00 69 1014.3
20220627104650 16 124 1.6 4.8 0.00 0.00 0.00 69 1014.4
20220627104549 16 95 1.6 6.4 0.00 0.00 0.00 69 1014.4
20220627104449 16 141 1.6 6.4 0.00 0.00 0.00 69 1014.3
20220627104350 16 138 1.6 6.4 0.00 0.00 0.00 69 1014.3
20220627104249 16 141 1.6 6.4 0.00 0.00 0.00 69 1014.4
20220627104159 16 137 1.6 6.4 0.00 0.00 0.00 69 1014.4
20220627104148 16 136 1.6 6.4 0.00 0.00 0.00 69 1014.4
20220627104048 16 138 1.6 6.4 0.00 0.00 0.00 69 1014.4
20220627103949 16 110 1.6 6.4 0.00 0.00 0.00 69 1014.3
20220627103848 16 139 1.6 6.4 0.00 0.00 0.00 69 1014.3
20220627103748 16 129 1.6 6.4 0.00 0.00 0.00 69 1014.3
20220627103700 16 124 1.6 6.4 0.00 0.00 0.00 69 1014.3
20220627103648 16 155 1.6 6.4 0.00 0.00 0.00 70 1014.3
20220627103547 16 136 1.6 4.8 0.00 0.00 0.00 70 1014.3
20220627103448 16 137 1.6 4.8 0.00 0.00 0.00 70 1014.3
20220627103348 16 142 0.0 4.8 0.00 0.00 0.00 69 1014.2
20220627103246 16 120 0.0 4.8 0.00 0.00 0.00 70 1014.3
20220627103201 16 107 0.0 4.8 0.00 0.00 0.00 70 1014.3
20220627103146 16 134 0.0 4.8 0.00 0.00 0.00 70 1014.3
20220627103043 16 134 0.0 4.8 0.00 0.00 0.00 70 1014.3
20220627102941 16 129 0.0 3.2 0.00 0.00 0.00 70 1014.3
20220627102837 16 143 0.0 3.2 0.00 0.00 0.00 70 1014.3
20220627102736 16 153 0.0 3.2 0.00 0.00 0.00 69 1014.3
20220627102659 16 153 0.0 3.2 0.00 0.00 0.00 69 1014.3
20220627102636 16 152 0.0 3.2 0.00 0.00 0.00 69 1014.3
20220627102536 16 130 0.0 3.2 0.00 0.00 0.00 69 1014.3
20220627102436 16 134 0.0 3.2 0.00 0.00 0.00 69 1014.3
20220627102337 16 134 0.0 4.8 0.00 0.00 0.00 69 1014.3
20220627102233 16 134 0.0 4.8 0.00 0.00 0.00 69 1014.3
20220627102159 16 134 0.0 4.8 0.00 0.00 0.00 69 1014.3
20220627102132 16 113 0.0 4.8 0.00 0.00 0.00 69 1014.3
20220627102032 16 148 0.0 4.8 0.00 0.00 0.00 69 1014.3
20220627101930 16 148 0.0 4.8 0.00 0.00 0.00 69 1014.3
20220627101829 16 148 1.6 4.8 0.00 0.00 0.00 69 1014.3
20220627101731 16 148 1.6 4.8 0.00 0.00 0.00 69 1014.3
20220627101658 16 148 1.6 4.8 0.00 0.00 0.00 69 1014.3
20220627101628 16 148 1.6 4.8 0.00 0.00 0.00 69 1014.3
20220627101526 16 148 1.6 4.8 0.00 0.00 0.00 69 1014.2
20220627101424 16 218 1.6 4.8 0.00 0.00 0.00 69 1014.3
20220627101318 16 136 1.6 4.8 0.00 0.00 0.00 69 1014.2
20220627101219 16 125 1.6 4.8 0.00 0.00 0.00 69 1014.3
20220627101157 16 151 1.6 4.8 0.00 0.00 0.00 69 1014.3
20220627101119 16 158 1.6 4.8 0.00 0.00 0.00 69 1014.3
20220627101019 16 146 1.6 4.8 0.00 0.00 0.00 69 1014.3
20220627100918 16 192 1.6 4.8 0.00 0.00 0.00 69 1014.2
20220627100812 16 219 0.0 3.2 0.00 0.00 0.00 69 1014.3
20220627100711 16 219 0.0 3.2 0.00 0.00 0.00 69 1014.3
20220627100658 16 194 0.0 3.2 0.00 0.00 0.00 69 1014.3
20220627100612 16 194 0.0 3.2 0.00 0.00 0.00 69 1014.3
20220627100512 16 193 0.0 3.2 0.00 0.00 0.00 69 1014.3
20220627100412 16 212 0.0 3.2 0.00 0.00 0.00 69 1014.3
20220627100311 16 204 0.0 3.2 0.00 0.00 0.00 69 1014.3
20220627100210 16 144 0.0 3.2 0.00 0.00 0.00 69 1014.3
20220627100158 16 144 0.0 3.2 0.00 0.00 0.00 69 1014.3
20220627100113 16 144 0.0 3.2 0.00 0.00 0.00 69 1014.3
20220627100009 16 141 0.0 3.2 0.00 0.00 0.00 69 1014.3
20220627095905 16 139 0.0 3.2 0.00 0.00 0.00 69 1014.3
20220627095807 16 141 0.0 3.2 0.00 0.00 0.00 69 1014.2
20220627095657 17 141 0.0 3.2 0.00 0.00 0.00 69 1014.3
20220627095604 16 141 0.0 3.2 0.00 0.00 0.00 68 1014.2
20220627095509 17 131 1.6 3.2 0.00 0.00 0.00 68 1014.3
20220627095404 17 179 1.6 4.8 0.00 0.00 0.00 68 1014.2
20220627095304 17 204 1.6 4.8 0.00 0.00 0.00 68 1014.2
20220627095156 17 224 1.6 4.8 0.00 0.00 0.00 68 1014.2
20220627095059 17 224 1.6 4.8 0.00 0.00 0.00 68 1014.2
20220627095000 17 205 1.6 4.8 0.00 0.00 0.00 68 1014.2
20220627094900 17 205 1.6 4.8 0.00 0.00 0.00 68 1014.2
20220627094758 17 188 1.6 4.8 0.00 0.00 0.00 68 1014.2
20220627094659 17 129 1.6 4.8 0.00 0.00 0.00 68 1014.2
20220627094600 17 127 1.6 4.8 0.00 0.00 0.00 68 1014.2
20220627094458 17 127 0.0 4.8 0.00 0.00 0.00 68 1014.2
20220627094356 17 143 0.0 3.2 0.00 0.00 0.00 68 1014.1
20220627094255 17 143 0.0 3.2 0.00 0.00 0.00 68 1014.1
20220627094157 17 201 0.0 3.2 0.00 0.00 0.00 68 1014.2
20220627094056 17 158 0.0 3.2 0.00 0.00 0.00 68 1014.2
20220627093956 17 203 0.0 3.2 0.00 0.00 0.00 68 1014.1
20220627093857 17 160 0.0 1.6 0.00 0.00 0.00 68 1014.2
20220627093756 17 161 0.0 1.6 0.00 0.00 0.00 67 1014.2
20220627093658 17 132 0.0 1.6 0.00 0.00 0.00 67 1014.2
20220627093559 17 132 0.0 1.6 0.00 0.00 0.00 67 1014.1
20220627093455 17 133 0.0 1.6 0.00 0.00 0.00 67 1014.2
20220627093354 17 127 0.0 1.6 0.00 0.00 0.00 67 1014.2
20220627093252 17 127 0.0 3.2 0.00 0.00 0.00 67 1014.2
20220627093152 17 193 0.0 3.2 0.00 0.00 0.00 67 1014.1
20220627093046 17 193 0.0 3.2 0.00 0.00 0.00 67 1014.1
20220627092943 17 193 0.0 3.2 0.00 0.00 0.00 67 1014.1
20220627092843 17 193 1.6 3.2 0.00 0.00 0.00 67 1014.1
20220627092742 17 193 1.6 3.2 0.00 0.00 0.00 67 1014.1
20220627092644 17 193 1.6 3.2 0.00 0.00 0.00 67 1014.1
20220627092539 17 193 1.6 4.8 0.00 0.00 0.00 66 1014.1
20220627092436 17 193 1.6 4.8 0.00 0.00 0.00 66 1014.1
20220627092336 17 212 1.6 4.8 0.00 0.00 0.00 66 1014.1
20220627092236 17 222 1.6 4.8 0.00 0.00 0.00 66 1014.1
20220627092145 17 207 1.6 4.8 0.00 0.00 0.00 66 1014.1
20220627092139 17 210 1.6 4.8 0.00 0.00 0.00 66 1014.1
20220627092037 17 201 1.6 4.8 0.00 0.00 0.00 66 1014.1
20220627091936 17 188 1.6 4.8 0.00 0.00 0.00 66 1014.1
20220627091836 17 191 1.6 4.8 0.00 0.00 0.00 66 1014.1
20220627091737 17 115 1.6 4.8 0.00 0.00 0.00 66 1014.1
20220627091646 17 187 1.6 4.8 0.00 0.00 0.00 66 1014.2
20220627091636 17 188 1.6 4.8 0.00 0.00 0.00 66 1014.2
20220627091536 17 170 1.6 4.8 0.00 0.00 0.00 66 1014.1
20220627091436 17 144 1.6 4.8 0.00 0.00 0.00 66 1014.1
20220627091332 17 212 1.6 3.2 0.00 0.00 0.00 66 1014.1
20220627091233 17 167 1.6 3.2 0.00 0.00 0.00 66 1014.1
20220627091145 17 167 1.6 3.2 0.00 0.00 0.00 66 1014.1
20220627091132 17 138 1.6 3.2 0.00 0.00 0.00 66 1014.1
20220627091032 17 129 1.6 3.2 0.00 0.00 0.00 66 1014.0
20220627090931 17 191 1.6 3.2 0.00 0.00 0.00 66 1014.1
20220627090830 17 128 1.6 4.8 0.00 0.00 0.00 66 1014.1
20220627090730 17 128 1.6 4.8 0.00 0.00 0.00 66 1014.1
20220627090643 17 137 1.6 4.8 0.00 0.00 0.00 66 1014.1
20220627090630 17 136 1.6 4.8 0.00 0.00 0.00 66 1014.1
20220627090528 17 135 1.6 4.8 0.00 0.00 0.00 66 1014.1
20220627090428 17 134 1.6 4.8 0.00 0.00 0.00 66 1014.1
20220627090327 17 120 1.6 4.8 0.00 0.00 0.00 66 1014.1
20220627090224 17 131 1.6 4.8 0.00 0.00 0.00 66 1014.1
20220627090144 17 133 1.6 4.8 0.00 0.00 0.00 67 1014.1
20220627090124 17 132 1.6 4.8 0.00 0.00 0.00 67 1014.1
20220627090022 17 129 1.6 4.8 0.00 0.00 0.00 67 1014.1
20220627085921 17 129 1.6 4.8 0.00 0.00 0.00 67 1014.0
20220627085824 17 144 0.0 4.8 0.00 0.00 0.00 67 1014.1
20220627085722 17 155 0.0 1.6 0.00 0.00 0.00 67 1014.0
20220627085623 17 158 0.0 1.6 0.00 0.00 0.00 67 1014.0
20220627085522 17 158 0.0 1.6 0.00 0.00 0.00 66 1014.0
20220627085422 17 141 0.0 1.6 0.00 0.00 0.00 66 1014.0
20220627085322 18 141 0.0 1.6 0.00 0.00 0.00 66 1014.0
20220627085224 18 205 0.0 1.6 0.00 0.00 0.00 66 1014.0
20220627085121 18 204 0.0 1.6 0.00 0.00 0.00 66 1013.9
20220627085023 18 204 0.0 1.6 0.00 0.00 0.00 66 1014.0
20220627084922 18 205 0.0 3.2 0.00 0.00 0.00 66 1014.0
20220627084823 18 205 0.0 3.2 0.00 0.00 0.00 66 1013.9
20220627084722 18 205 0.0 3.2 0.00 0.00 0.00 66 1014.0
20220627084621 18 204 0.0 3.2 0.00 0.00 0.00 65 1014.0
20220627084522 18 195 0.0 4.8 0.00 0.00 0.00 65 1013.9
20220627084418 18 223 1.6 4.8 0.00 0.00 0.00 65 1014.0
20220627084317 18 222 1.6 4.8 0.00 0.00 0.00 65 1014.0
20220627084217 18 200 1.6 4.8 0.00 0.00 0.00 65 1014.0
20220627084118 18 225 1.6 4.8 0.00 0.00 0.00 65 1014.0
20220627084018 18 225 1.6 4.8 0.00 0.00 0.00 65 1014.0
20220627083918 18 167 0.0 4.8 0.00 0.00 0.00 66 1014.0
20220627083817 18 159 0.0 4.8 0.00 0.00 0.00 65 1014.0
20220627083716 18 159 0.0 4.8 0.00 0.00 0.00 65 1014.0
20220627083641 18 160 0.0 4.8 0.00 0.00 0.00 65 1013.9
20220627083616 18 158 0.0 4.8 0.00 0.00 0.00 65 1013.9
20220627083516 18 129 0.0 3.2 0.00 0.00 0.00 65 1014.0
20220627083419 18 222 0.0 3.2 0.00 0.00 0.00 65 1014.0
20220627083317 18 224 0.0 4.8 0.00 0.00 0.00 65 1014.0
20220627083217 18 224 1.6 9.7 0.00 0.00 0.00 65 1014.0
20220627083116 18 224 1.6 9.7 0.00 0.00 0.00 65 1013.9
20220627083016 18 224 1.6 9.7 0.00 0.00 0.00 65 1014.0
20220627082916 18 226 1.6 9.7 0.00 0.00 0.00 64 1014.0
20220627082816 18 226 1.6 9.7 0.00 0.00 0.00 64 1013.9
20220627082716 18 226 1.6 9.7 0.00 0.00 0.00 64 1014.0
20220627082637 18 222 3.2 9.7 0.00 0.00 0.00 64 1013.9
20220627082613 18 232 3.2 9.7 0.00 0.00 0.00 64 1013.9
20220627082515 18 212 3.2 9.7 0.00 0.00 0.00 64 1013.9
20220627082414 18 179 3.2 9.7 0.00 0.00 0.00 64 1013.9
20220627082313 18 188 3.2 9.7 0.00 0.00 0.00 64 1014.0
20220627082214 18 138 1.6 8.0 0.00 0.00 0.00 65 1014.0
20220627082136 18 228 1.6 4.8 0.00 0.00 0.00 65 1014.0
20220627082113 18 181 1.6 4.8 0.00 0.00 0.00 65 1014.0
20220627082014 18 180 1.6 4.8 0.00 0.00 0.00 65 1013.9
20220627081914 18 224 1.6 4.8 0.00 0.00 0.00 65 1014.0
20220627081814 18 214 1.6 4.8 0.00 0.00 0.00 65 1014.0
20220627081714 18 219 1.6 4.8 0.00 0.00 0.00 66 1014.0
20220627081635 18 173 0.0 4.8 0.00 0.00 0.00 66 1014.0
20220627081614 18 190 0.0 4.8 0.00 0.00 0.00 66 1014.0
20220627081514 18 193 0.0 3.2 0.00 0.00 0.00 66 1014.0
20220627081415 18 116 0.0 3.2 0.00 0.00 0.00 66 1014.0
20220627081314 18 133 0.0 1.6 0.00 0.00 0.00 66 1013.9
20220627081214 18 191 0.0 1.6 0.00 0.00 0.00 66 1014.0
20220627081135 18 191 0.0 1.6 0.00 0.00 0.00 65 1013.9
20220627081114 18 212 0.0 1.6 0.00 0.00 0.00 65 1013.9
20220627081014 18 212 0.0 1.6 0.00 0.00 0.00 65 1013.9
20220627080913 18 214 0.0 1.6 0.00 0.00 0.00 65 1013.9
20220627080818 18 214 0.0 1.6 0.00 0.00 0.00 65 1013.9
20220627080712 18 214 0.0 1.6 0.00 0.00 0.00 65 1013.8
20220627080611 18 214 0.0 1.6 0.00 0.00 0.00 65 1013.8
20220627080512 18 214 0.0 1.6 0.00 0.00 0.00 65 1013.8
20220627080412 18 214 0.0 3.2 0.00 0.00 0.00 65 1013.8
20220627080311 18 214 0.0 4.8 0.00 0.00 0.00 65 1013.8
20220627080212 18 193 0.0 4.8 0.00 0.00 0.00 64 1013.8
20220627080146 18 193 0.0 4.8 0.00 0.00 0.00 64 1013.8
20220627080112 18 193 0.0 4.8 0.00 0.00 0.00 64 1013.8
20220627080012 18 193 0.0 4.8 0.00 0.00 0.00 64 1013.8
20220627075912 18 193 1.6 4.8 0.00 0.00 0.00 64 1013.9
20220627075813 18 193 1.6 4.8 0.00 0.00 0.00 64 1013.9
20220627075711 18 231 1.6 4.8 0.00 0.00 0.00 64 1013.9
20220627075612 18 231 1.6 4.8 0.00 0.00 0.00 64 1013.9
20220627075512 18 231 1.6 4.8 0.00 0.00 0.00 64 1013.8
20220627075412 18 235 1.6 4.8 0.00 0.00 0.00 64 1013.8
20220627075312 18 207 1.6 4.8 0.00 0.00 0.00 64 1013.9
20220627075212 18 219 1.6 4.8 0.00 0.00 0.00 64 1013.9
20220627075132 18 220 1.6 4.8 0.00 0.00 0.00 64 1013.8
20220627075113 18 219 1.6 4.8 0.00 0.00 0.00 64 1013.8
20220627075012 18 212 1.6 4.8 0.00 0.00 0.00 64 1013.8
20220627074913 18 212 1.6 4.8 0.00 0.00 0.00 64 1013.8
20220627074811 18 195 1.6 4.8 0.00 0.00 0.00 64 1013.8
20220627074709 18 239 1.6 4.8 0.00 0.00 0.00 64 1013.9
20220627074635 18 231 1.6 4.8 0.00 0.00 0.00 64 1013.9
20220627074610 18 235 1.6 4.8 0.00 0.00 0.00 64 1013.9
20220627074510 18 195 0.0 3.2 0.00 0.00 0.00 65 1013.9
20220627074410 18 158 0.0 3.2 0.00 0.00 0.00 64 1013.9
20220627074309 18 153 0.0 3.2 0.00 0.00 0.00 64 1013.9
20220627074210 18 194 1.6 4.8 0.00 0.00 0.00 64 1013.9
20220627074128 18 190 1.6 4.8 0.00 0.00 0.00 64 1013.9
20220627074110 18 220 1.6 4.8 0.00 0.00 0.00 64 1013.9
20220627074010 18 215 1.6 4.8 0.00 0.00 0.00 64 1013.9
20220627073910 18 200 0.0 4.8 0.00 0.00 0.00 64 1013.9
20220627073810 19 235 0.0 4.8 0.00 0.00 0.00 64 1013.9
20220627073710 19 162 1.6 4.8 0.00 0.00 0.00 64 1013.9
20220627073629 19 167 0.0 4.8 0.00 0.00 0.00 64 1013.9
20220627073611 19 166 0.0 4.8 0.00 0.00 0.00 64 1013.8
20220627073510 19 222 0.0 4.8 0.00 0.00 0.00 64 1013.8
20220627073409 19 232 0.0 4.8 0.00 0.00 0.00 64 1013.8
20220627073309 19 222 0.0 4.8 0.00 0.00 0.00 64 1013.8
20220627073211 19 226 1.6 4.8 0.00 0.00 0.00 64 1013.8
20220627073127 19 229 1.6 4.8 0.00 0.00 0.00 64 1013.8
20220627073110 19 240 1.6 4.8 0.00 0.00 0.00 64 1013.8
20220627073008 19 225 1.6 4.8 0.00 0.00 0.00 64 1013.8
20220627072908 19 226 1.6 4.8 0.00 0.00 0.00 64 1013.9
20220627072808 19 233 1.6 4.8 0.00 0.00 0.00 64 1013.9
20220627072707 19 231 1.6 4.8 0.00 0.00 0.00 64 1013.8
20220627072625 19 218 1.6 4.8 0.00 0.00 0.00 64 1013.8
20220627072609 19 224 1.6 4.8 0.00 0.00 0.00 64 1013.8
20220627072508 18 224 1.6 4.8 0.00 0.00 0.00 64 1013.8
20220627072408 18 224 1.6 4.8 0.00 0.00 0.00 64 1013.8
20220627072309 18 233 1.6 4.8 0.00 0.00 0.00 64 1013.8
20220627072208 18 193 0.0 4.8 0.00 0.00 0.00 64 1013.8
20220627072126 18 211 0.0 4.8 0.00 0.00 0.00 64 1013.8
20220627072109 18 225 0.0 4.8 0.00 0.00 0.00 64 1013.8
20220627072008 18 219 0.0 4.8 0.00 0.00 0.00 64 1013.8
20220627071907 18 195 0.0 1.6 0.00 0.00 0.00 65 1013.8
20220627071807 18 210 0.0 1.6 0.00 0.00 0.00 65 1013.8
20220627071708 18 210 0.0 1.6 0.00 0.00 0.00 65 1013.8
20220627071608 18 210 0.0 1.6 0.00 0.00 0.00 65 1013.8
20220627071508 18 98 0.0 0.0 0.00 0.00 0.00 65 1013.8
20220627071407 18 92 0.0 0.0 0.00 0.00 0.00 64 1013.8
20220627071308 18 91 0.0 0.0 0.00 0.00 0.00 64 1013.8
20220627071210 18 92 0.0 0.0 0.00 0.00 0.00 64 1013.8
20220627071124 18 91 0.0 0.0 0.00 0.00 0.00 63 1013.8
20220627071108 18 91 0.0 0.0 0.00 0.00 0.00 63 1013.7
20220627071007 18 91 0.0 0.0 0.00 0.00 0.00 64 1013.8
20220627070906 18 91 0.0 0.0 0.00 0.00 0.00 64 1013.7
20220627070806 18 91 0.0 0.0 0.00 0.00 0.00 64 1013.7
20220627070706 18 92 0.0 0.0 0.00 0.00 0.00 64 1013.7
20220627070623 19 91 0.0 0.0 0.00 0.00 0.00 64 1013.7
20220627070606 19 92 0.0 0.0 0.00 0.00 0.00 64 1013.8
20220627070506 19 92 0.0 0.0 0.00 0.00 0.00 63 1013.8
20220627070407 19 92 0.0 0.0 0.00 0.00 0.00 62 1013.8
20220627070307 19 91 0.0 0.0 0.00 0.00 0.00 63 1013.8
20220627070206 19 91 0.0 0.0 0.00 0.00 0.00 62 1013.7
20220627070124 19 91 0.0 0.0 0.00 0.00 0.00 62 1013.7
20220627070107 19 92 0.0 0.0 0.00 0.00 0.00 62 1013.8
20220627070006 19 92 0.0 0.0 0.00 0.00 0.00 62 1013.8
20220627065905 19 91 0.0 0.0 0.00 0.00 0.00 62 1013.7
20220627065806 19 91 0.0 0.0 0.00 0.00 0.00 61 1013.7
20220627065700 20 91 0.0 0.0 0.00 0.00 0.00 61 1013.7
20220627065621 20 92 0.0 0.0 0.00 0.00 0.00 61 1013.7
20220627065601 20 92 0.0 0.0 0.00 0.00 0.00 61 1013.7
20220627065500 20 91 0.0 0.0 0.00 0.00 0.00 61 1013.7
20220627065400 20 91 0.0 0.0 0.00 0.00 0.00 60 1013.7
20220627065300 20 92 0.0 0.0 0.00 0.00 0.00 60 1013.7
20220627065159 20 91 0.0 0.0 0.00 0.00 0.00 60 1013.7
20220627065115 20 91 0.0 0.0 0.00 0.00 0.00 60 1013.7
20220627065058 20 92 0.0 0.0 0.00 0.00 0.00 60 1013.7
20220627064958 20 91 0.0 0.0 0.00 0.00 0.00 59 1013.7
20220627064856 20 92 0.0 3.2 0.00 0.00 0.00 59 1013.7
20220627064756 20 91 1.6 3.2 0.00 0.00 0.00 59 1013.8
20220627064648 20 92 1.6 3.2 0.00 0.00 0.00 58 1013.7
20220627064610 20 92 1.6 3.2 0.00 0.00 0.00 58 1013.7
20220627064549 20 91 1.6 3.2 0.00 0.00 0.00 58 1013.7
20220627064449 20 91 1.6 3.2 0.00 0.00 0.00 58 1013.7
20220627064352 20 91 1.6 3.2 0.00 0.00 0.00 58 1013.7
20220627064248 20 91 1.6 3.2 0.00 0.00 0.00 58 1013.7
20220627064146 20 91 1.6 3.2 0.00 0.00 0.00 58 1013.8
20220627064104 20 92 1.6 3.2 0.00 0.00 0.00 58 1013.8
20220627064046 20 92 1.6 3.2 0.00 0.00 0.00 58 1013.8
20220627063946 20 91 1.6 3.2 0.00 0.00 0.00 58 1013.8
20220627063847 20 94 0.0 3.2 0.00 0.00 0.00 58 1013.9
20220627063743 20 94 0.0 3.2 0.00 0.00 0.00 58 1013.9
20220627063642 20 94 0.0 3.2 0.00 0.00 0.00 58 1013.8
20220627063557 20 130 0.0 1.6 0.00 0.00 0.00 58 1013.8
20220627063541 20 177 0.0 1.6 0.00 0.00 0.00 58 1013.8
20220627063441 20 210 0.0 0.0 0.00 0.00 0.00 57 1013.8
20220627063338 21 210 0.0 0.0 0.00 0.00 0.00 57 1013.7
20220627063238 21 210 0.0 0.0 0.00 0.00 0.00 56 1013.7
20220627063134 21 210 0.0 0.0 0.00 0.00 0.00 56 1013.6
20220627063052 21 210 0.0 0.0 0.00 0.00 0.00 56 1013.7
20220627063036 21 210 0.0 1.6 0.00 0.00 0.00 56 1013.7
20220627062934 21 210 0.0 3.2 0.00 0.00 0.00 56 1013.7
20220627062833 21 210 0.0 4.8 0.00 0.00 0.00 56 1013.6
20220627062731 21 210 0.0 4.8 0.00 0.00 0.00 56 1013.6
20220627062632 21 210 1.6 4.8 0.00 0.00 0.00 56 1013.6
20220627062528 21 210 1.6 4.8 0.00 0.00 0.00 56 1013.7
20220627062428 21 210 1.6 6.4 0.00 0.00 0.00 55 1013.7
20220627062326 21 210 1.6 8.0 0.00 0.00 0.00 55 1013.7
20220627062225 21 210 1.6 8.0 0.00 0.00 0.00 55 1013.7
20220627062120 21 210 1.6 8.0 0.00 0.00 0.00 55 1013.7
20220627062039 21 210 1.6 8.0 0.00 0.00 0.00 55 1013.7
20220627062019 21 172 1.6 8.0 0.00 0.00 0.00 55 1013.7
20220627061919 21 222 1.6 8.0 0.00 0.00 0.00 55 1013.7
20220627061818 21 217 1.6 8.0 0.00 0.00 0.00 55 1013.7
20220627061718 21 211 1.6 8.0 0.00 0.00 0.00 55 1013.7
20220627061616 21 231 1.6 8.0 0.00 0.00 0.00 55 1013.7
20220627061535 21 136 1.6 8.0 0.00 0.00 0.00 55 1013.7
20220627061519 21 137 1.6 8.0 0.00 0.00 0.00 55 1013.7
20220627061415 21 198 1.6 8.0 0.00 0.00 0.00 55 1013.7
20220627061314 21 207 1.6 6.4 0.00 0.00 0.00 55 1013.7
20220627061212 21 238 1.6 6.4 0.00 0.00 0.00 55 1013.7
20220627061108 21 238 1.6 6.4 0.00 0.00 0.00 55 1013.7
20220627061028 21 219 1.6 6.4 0.00 0.00 0.00 55 1013.7
20220627061006 21 214 1.6 6.4 0.00 0.00 0.00 55 1013.6
20220627060907 21 213 0.0 6.4 0.00 0.00 0.00 55 1013.7
20220627060806 21 210 0.0 6.4 0.00 0.00 0.00 55 1013.7
20220627060706 21 148 0.0 6.4 0.00 0.00 0.00 55 1013.7
20220627060606 21 148 0.0 6.4 0.00 0.00 0.00 55 1013.7
20220627060522 21 148 0.0 6.4 0.00 0.00 0.00 55 1013.7
20220627060500 21 148 0.0 6.4 0.00 0.00 0.00 55 1013.7
20220627060400 21 141 0.0 9.7 0.00 0.00 0.00 55 1013.7
20220627060301 21 136 0.0 9.7 0.00 0.00 0.00 55 1013.6
20220627060200 21 103 1.6 9.7 0.00 0.00 0.00 54 1013.6
20220627060100 21 103 1.6 9.7 0.00 0.00 0.00 54 1013.6
20220627060016 21 103 1.6 9.7 0.00 0.00 0.00 54 1013.6
20220627055955 21 103 1.6 9.7 0.00 0.00 0.00 54 1013.6
20220627055854 22 117 1.6 9.7 0.00 0.00 0.00 54 1013.5
20220627055754 22 156 1.6 9.7 0.00 0.00 0.00 54 1013.5
20220627055655 22 217 1.6 9.7 0.00 0.00 0.00 54 1013.5
20220627055554 22 250 1.6 9.7 0.00 0.00 0.00 54 1013.5
20220627055510 22 250 1.6 9.7 0.00 0.00 0.00 54 1013.5
20220627055452 22 250 1.6 9.7 0.00 0.00 0.00 53 1013.5
20220627055353 22 277 1.6 9.7 0.00 0.00 0.00 53 1013.5
20220627055250 22 277 1.6 9.7 0.00 0.00 0.00 54 1013.5
20220627055148 22 217 1.6 9.7 0.00 0.00 0.00 53 1013.6
20220627055048 22 256 1.6 9.7 0.00 0.00 0.00 53 1013.5
20220627055004 22 256 1.6 9.7 0.00 0.00 0.00 53 1013.5
20220627054948 22 256 1.6 9.7 0.00 0.00 0.00 53 1013.5
20220627054844 22 260 1.6 9.7 0.00 0.00 0.00 53 1013.5
20220627054744 22 260 1.6 9.7 0.00 0.00 0.00 53 1013.5
20220627054641 22 158 1.6 9.7 0.00 0.00 0.00 53 1013.5
20220627054545 22 205 1.6 9.7 0.00 0.00 0.00 52 1013.5
20220627054457 22 233 1.6 9.7 0.00 0.00 0.00 52 1013.5
20220627054441 22 304 1.6 9.7 0.00 0.00 0.00 52 1013.5
20220627054340 22 243 1.6 9.7 0.00 0.00 0.00 52 1013.5
20220627054239 22 226 1.6 9.7 0.00 0.00 0.00 52 1013.5
20220627054136 22 226 1.6 9.7 0.00 0.00 0.00 52 1013.5
20220627054036 22 229 1.6 6.4 0.00 0.00 0.00 52 1013.5
20220627053951 22 253 1.6 6.4 0.00 0.00 0.00 52 1013.5
20220627053934 22 228 1.6 6.4 0.00 0.00 0.00 51 1013.5
20220627053834 22 233 1.6 9.7 0.00 0.00 0.00 51 1013.5
20220627053733 22 253 1.6 9.7 0.00 0.00 0.00 51 1013.5
20220627053632 22 253 3.2 12.9 0.00 0.00 0.00 51 1013.5
20220627053526 22 269 3.2 12.9 0.00 0.00 0.00 51 1013.5
20220627053445 22 270 3.2 12.9 0.00 0.00 0.00 51 1013.5
20220627053425 23 269 3.2 12.9 0.00 0.00 0.00 51 1013.5
20220627053324 23 254 3.2 12.9 0.00 0.00 0.00 51 1013.5
20220627053224 23 255 1.6 12.9 0.00 0.00 0.00 51 1013.5
20220627053124 23 250 3.2 12.9 0.00 0.00 0.00 51 1013.5
20220627053018 23 282 3.2 12.9 0.00 0.00 0.00 51 1013.5
20220627052941 23 263 3.2 12.9 0.00 0.00 0.00 51 1013.5
20220627052918 23 203 3.2 12.9 0.00 0.00 0.00 51 1013.5
20220627052819 23 221 3.2 12.9 0.00 0.00 0.00 51 1013.5
20220627052718 23 212 3.2 12.9 0.00 0.00 0.00 51 1013.5
20220627052618 23 207 1.6 8.0 0.00 0.00 0.00 51 1013.5
20220627052518 23 224 3.2 8.0 0.00 0.00 0.00 51 1013.5
20220627052434 23 225 3.2 8.0 0.00 0.00 0.00 51 1013.5
20220627052416 23 204 3.2 8.0 0.00 0.00 0.00 51 1013.5
20220627052316 23 225 3.2 8.0 0.00 0.00 0.00 51 1013.5
20220627052214 23 226 3.2 8.0 0.00 0.00 0.00 51 1013.5
20220627052113 23 238 3.2 8.0 0.00 0.00 0.00 50 1013.4
20220627052008 23 248 3.2 8.0 0.00 0.00 0.00 50 1013.5
20220627051927 23 228 3.2 8.0 0.00 0.00 0.00 50 1013.5
20220627051908 23 193 3.2 8.0 0.00 0.00 0.00 50 1013.5
20220627051810 23 243 3.2 8.0 0.00 0.00 0.00 50 1013.4
20220627051708 23 233 3.2 8.0 0.00 0.00 0.00 50 1013.4
20220627051606 23 205 3.2 8.0 0.00 0.00 0.00 50 1013.4
20220627051501 23 212 3.2 8.0 0.00 0.00 0.00 49 1013.4
20220627051422 23 155 3.2 8.0 0.00 0.00 0.00 49 1013.4
20220627051402 23 198 3.2 8.0 0.00 0.00 0.00 49 1013.3
20220627051303 23 210 1.6 6.4 0.00 0.00 0.00 49 1013.3
20220627051202 23 216 1.6 6.4 0.00 0.00 0.00 48 1013.3
20220627051100 24 236 1.6 6.4 0.00 0.00 0.00 48 1013.3
20220627050956 24 225 1.6 6.4 0.00 0.00 0.00 48 1013.3
20220627050915 24 235 1.6 6.4 0.00 0.00 0.00 48 1013.3
20220627050855 24 211 1.6 6.4 0.00 0.00 0.00 48 1013.3
20220627050754 24 231 1.6 6.4 0.00 0.00 0.00 47 1013.3
20220627050654 24 183 1.6 6.4 0.00 0.00 0.00 48 1013.2
20220627050554 24 229 1.6 6.4 0.00 0.00 0.00 47 1013.2
20220627050450 24 218 1.6 6.4 0.00 0.00 0.00 47 1013.2
20220627050410 24 231 1.6 6.4 0.00 0.00 0.00 47 1013.2
20220627050348 24 247 1.6 6.4 0.00 0.00 0.00 47 1013.2
20220627050250 24 246 1.6 6.4 0.00 0.00 0.00 47 1013.2
20220627050148 24 195 1.6 8.0 0.00 0.00 0.00 47 1013.2
20220627050051 24 181 1.6 8.0 0.00 0.00 0.00 47 1013.2
20220627045944 24 221 1.6 8.0 0.00 0.00 0.00 47 1013.2
20220627045904 24 243 1.6 8.0 0.00 0.00 0.00 47 1013.2
20220627045849 24 243 1.6 8.0 0.00 0.00 0.00 47 1013.2
20220627045744 25 239 3.2 9.7 0.00 0.00 0.00 46 1013.1
20220627045645 25 260 3.2 9.7 0.00 0.00 0.00 46 1013.2
20220627045542 25 224 3.2 14.5 0.00 0.00 0.00 46 1013.1
20220627045437 25 240 4.8 14.5 0.00 0.00 0.00 46 1013.1
20220627045358 25 222 4.8 14.5 0.00 0.00 0.00 46 1013.1
20220627045336 25 277 4.8 14.5 0.00 0.00 0.00 46 1013.1
20220627045236 25 195 4.8 14.5 0.00 0.00 0.00 46 1013.1
20220627045139 25 252 4.8 14.5 0.00 0.00 0.00 46 1013.1
20220627045036 25 271 4.8 14.5 0.00 0.00 0.00 46 1013.1
20220627044932 25 243 4.8 14.5 0.00 0.00 0.00 46 1013.1
20220627044853 25 211 4.8 14.5 0.00 0.00 0.00 46 1013.1
20220627044833 25 284 4.8 14.5 0.00 0.00 0.00 46 1013.1
20220627044732 25 210 4.8 14.5 0.00 0.00 0.00 46 1013.0
20220627044632 25 225 4.8 14.5 0.00 0.00 0.00 46 1013.1
20220627044532 25 214 3.2 12.9 0.00 0.00 0.00 46 1013.1
20220627044424 25 185 3.2 12.9 0.00 0.00 0.00 46 1013.1
20220627044346 25 203 3.2 12.9 0.00 0.00 0.00 46 1013.0
20220627044324 25 210 3.2 12.9 0.00 0.00 0.00 46 1013.0
20220627044224 25 240 3.2 12.9 0.00 0.00 0.00 46 1013.0
20220627044124 25 229 3.2 12.9 0.00 0.00 0.00 46 1013.1
20220627044024 25 220 3.2 12.9 0.00 0.00 0.00 46 1013.1
20220627043920 25 233 3.2 9.7 0.00 0.00 0.00 46 1013.1
20220627043840 25 219 3.2 9.7 0.00 0.00 0.00 46 1013.0
20220627043818 25 250 3.2 9.7 0.00 0.00 0.00 46 1013.0
20220627043719 25 222 3.2 8.0 0.00 0.00 0.00 46 1013.0
20220627043619 26 221 1.6 8.0 0.00 0.00 0.00 46 1013.0
20220627043519 26 226 3.2 8.0 0.00 0.00 0.00 45 1013.0
20220627043413 26 217 3.2 9.7 0.00 0.00 0.00 45 1013.1
20220627043333 26 243 3.2 9.7 0.00 0.00 0.00 45 1013.0
20220627043312 26 260 3.2 9.7 0.00 0.00 0.00 45 1013.0
20220627043212 26 212 3.2 9.7 0.00 0.00 0.00 45 1013.0
20220627043112 26 224 3.2 9.7 0.00 0.00 0.00 45 1013.0
20220627043012 26 224 4.8 12.9 0.00 0.00 0.00 45 1013.0
20220627042906 26 224 4.8 12.9 0.00 0.00 0.00 45 1013.0
20220627042828 26 221 4.8 12.9 0.00 0.00 0.00 44 1013.0
20220627042806 26 222 4.8 12.9 0.00 0.00 0.00 44 1012.9
20220627042707 26 236 4.8 12.9 0.00 0.00 0.00 44 1012.9
20220627042607 26 224 4.8 12.9 0.00 0.00 0.00 44 1012.9
20220627042506 26 208 4.8 12.9 0.00 0.00 0.00 44 1012.9
20220627042401 26 172 4.8 12.9 0.00 0.00 0.00 44 1012.9
20220627042321 26 229 4.8 12.9 0.00 0.00 0.00 44 1012.9
20220627042300 26 222 4.8 12.9 0.00 0.00 0.00 44 1012.9
20220627042201 26 250 4.8 12.9 0.00 0.00 0.00 44 1012.9
20220627042100 26 242 3.2 12.9 0.00 0.00 0.00 43 1012.9
20220627042000 26 215 3.2 12.9 0.00 0.00 0.00 43 1012.9
20220627041854 26 169 3.2 12.9 0.00 0.00 0.00 43 1012.9
20220627041815 26 222 3.2 12.9 0.00 0.00 0.00 43 1012.9
20220627041754 26 215 3.2 12.9 0.00 0.00 0.00 43 1012.9
20220627041654 26 226 3.2 12.9 0.00 0.00 0.00 43 1012.9
20220627041554 26 200 1.6 12.9 0.00 0.00 0.00 43 1012.9
20220627041454 26 199 1.6 11.3 0.00 0.00 0.00 43 1012.9
20220627041353 27 248 1.6 11.3 0.00 0.00 0.00 43 1012.9
20220627041309 27 212 1.6 11.3 0.00 0.00 0.00 43 1012.9
20220627041252 27 212 1.6 11.3 0.00 0.00 0.00 43 1012.9
20220627041153 27 212 3.2 14.5 0.00 0.00 0.00 42 1012.8
20220627041051 27 222 3.2 14.5 0.00 0.00 0.00 42 1012.9
20220627040948 27 214 3.2 14.5 0.00 0.00 0.00 42 1012.8
20220627040846 27 177 3.2 14.5 0.00 0.00 0.00 42 1012.9
20220627040803 27 200 3.2 14.5 0.00 0.00 0.00 42 1012.9
20220627040747 27 200 3.2 14.5 0.00 0.00 0.00 42 1012.9
20220627040644 27 224 4.8 14.5 0.00 0.00 0.00 41 1012.9
20220627040544 27 203 4.8 17.7 0.00 0.00 0.00 41 1012.8
20220627040445 27 243 4.8 17.7 0.00 0.00 0.00 41 1012.8
20220627040340 27 233 6.4 17.7 0.00 0.00 0.00 41 1012.7
20220627040258 27 257 6.4 17.7 0.00 0.00 0.00 41 1012.8
20220627040238 27 214 6.4 17.7 0.00 0.00 0.00 41 1012.8
20220627040139 27 198 6.4 17.7 0.00 0.00 0.00 41 1012.8
20220627040039 27 256 6.4 17.7 0.00 0.00 0.00 40 1012.7
20220627035938 27 225 6.4 17.7 0.00 0.00 0.00 40 1012.7
20220627035833 27 243 6.4 17.7 0.00 0.00 0.00 40 1012.7
20220627035752 27 246 6.4 17.7 0.00 0.00 0.00 40 1012.7
20220627035731 27 231 6.4 17.7 0.00 0.00 0.00 40 1012.7
20220627035631 27 193 6.4 17.7 0.00 0.00 0.00 40 1012.7
20220627035530 27 210 6.4 17.7 0.00 0.00 0.00 39 1012.7
20220627035430 27 217 6.4 17.7 0.00 0.00 0.00 39 1012.7
20220627035325 28 224 4.8 12.9 0.00 0.00 0.00 39 1012.7
20220627035245 28 229 4.8 12.9 0.00 0.00 0.00 39 1012.7
20220627035224 28 222 4.8 12.9 0.00 0.00 0.00 39 1012.7
20220627035124 28 162 4.8 12.9 0.00 0.00 0.00 39 1012.6
20220627035025 28 193 4.8 12.9 0.00 0.00 0.00 39 1012.6
20220627034931 28 195 4.8 12.9 0.00 0.00 0.00 38 1012.6
20220627034824 28 253 4.8 12.9 0.00 0.00 0.00 38 1012.6
20220627034741 28 207 4.8 12.9 0.00 0.00 0.00 38 1012.6
20220627034728 28 219 4.8 12.9 0.00 0.00 0.00 38 1012.6
20220627034619 28 195 4.8 12.9 0.00 0.00 0.00 38 1012.6
20220627034521 28 233 4.8 12.9 0.00 0.00 0.00 38 1012.6
20220627034424 28 203 4.8 12.9 0.00 0.00 0.00 37 1012.6
20220627034317 28 197 4.8 16.1 0.00 0.00 0.00 37 1012.6
20220627034233 28 221 4.8 16.1 0.00 0.00 0.00 37 1012.5
20220627034226 28 256 4.8 16.1 0.00 0.00 0.00 37 1012.5
20220627034113 28 217 4.8 16.1 0.00 0.00 0.00 37 1012.5
20220627034013 28 242 4.8 16.1 0.00 0.00 0.00 37 1012.5
20220627033912 28 193 6.4 16.1 0.00 0.00 0.00 37 1012.5
20220627033806 28 248 6.4 17.7 0.00 0.00 0.00 37 1012.5
20220627033727 28 235 6.4 17.7 0.00 0.00 0.00 36 1012.5
20220627033706 28 180 6.4 17.7 0.00 0.00 0.00 36 1012.5
20220627033606 28 200 6.4 17.7 0.00 0.00 0.00 36 1012.5
20220627033507 28 250 6.4 17.7 0.00 0.00 0.00 36 1012.5
20220627033406 28 233 6.4 17.7 0.00 0.00 0.00 36 1012.5
20220627033300 29 238 6.4 17.7 0.00 0.00 0.00 36 1012.5
20220627033222 29 188 6.4 17.7 0.00 0.00 0.00 36 1012.5
20220627033200 29 228 6.4 17.7 0.00 0.00 0.00 36 1012.5
20220627033100 29 224 6.4 17.7 0.00 0.00 0.00 36 1012.5
20220627033000 29 236 6.4 17.7 0.00 0.00 0.00 36 1012.5
20220627032859 29 236 6.4 16.1 0.00 0.00 0.00 36 1012.5
20220627032754 29 217 6.4 16.1 0.00 0.00 0.00 36 1012.5
20220627032716 29 245 6.4 16.1 0.00 0.00 0.00 36 1012.5
20220627032654 29 239 4.8 16.1 0.00 0.00 0.00 36 1012.4
20220627032554 29 212 4.8 16.1 0.00 0.00 0.00 36 1012.5
20220627032454 29 211 4.8 14.5 0.00 0.00 0.00 36 1012.5
20220627032355 29 197 4.8 14.5 0.00 0.00 0.00 36 1012.5
20220627032250 29 214 4.8 14.5 0.00 0.00 0.00 36 1012.5
20220627032209 29 250 4.8 14.5 0.00 0.00 0.00 36 1012.5
20220627032151 29 211 4.8 14.5 0.00 0.00 0.00 36 1012.5
20220627032050 29 214 4.8 14.5 0.00 0.00 0.00 36 1012.5
20220627031951 30 245 4.8 14.5 0.00 0.00 0.00 36 1012.5
20220627031848 30 195 4.8 14.5 0.00 0.00 0.00 35 1012.4
20220627031742 30 188 4.8 14.5 0.00 0.00 0.00 35 1012.5
20220627031703 30 239 4.8 9.7 0.00 0.00 0.00 35 1012.5
20220627031642 30 180 4.8 12.9 0.00 0.00 0.00 35 1012.5
20220627031542 30 215 4.8 14.5 0.00 0.00 0.00 35 1012.5
20220627031442 30 170 4.8 14.5 0.00 0.00 0.00 35 1012.5
20220627031343 30 225 4.8 14.5 0.00 0.00 0.00 35 1012.5
20220627031240 30 212 4.8 14.5 0.00 0.00 0.00 34 1012.5
20220627031157 30 232 4.8 14.5 0.00 0.00 0.00 34 1012.5
20220627031140 30 203 4.8 14.5 0.00 0.00 0.00 34 1012.5
20220627031041 30 238 4.8 14.5 0.00 0.00 0.00 34 1012.5
20220627030938 30 259 4.8 14.5 0.00 0.00 0.00 34 1012.5
20220627030836 30 245 4.8 14.5 0.00 0.00 0.00 34 1012.5
20220627030733 30 198 4.8 14.5 0.00 0.00 0.00 33 1012.5
20220627030651 30 179 4.8 14.5 0.00 0.00 0.00 33 1012.4
20220627030630 30 211 4.8 12.9 0.00 0.00 0.00 33 1012.4
20220627030531 30 218 4.8 12.9 0.00 0.00 0.00 33 1012.4
20220627030430 30 240 4.8 12.9 0.00 0.00 0.00 33 1012.4
20220627030330 30 243 4.8 12.9 0.00 0.00 0.00 33 1012.5
20220627030224 30 238 4.8 12.9 0.00 0.00 0.00 33 1012.5
20220627030144 30 219 4.8 16.1 0.00 0.00 0.00 33 1012.5
20220627030127 30 200 4.8 16.1 0.00 0.00 0.00 33 1012.5
20220627030024 30 210 4.8 16.1 0.00 0.00 0.00 32 1012.5
20220627025925 30 174 4.8 16.1 0.00 0.00 0.00 32 1012.4
20220627025824 30 213 4.8 16.1 0.00 0.00 0.00 32 1012.4
20220627025720 30 215 6.4 16.1 0.00 0.00 0.00 32 1012.4
20220627025639 30 235 6.4 16.1 0.00 0.00 0.00 32 1012.4
20220627025619 30 228 6.4 16.1 0.00 0.00 0.00 32 1012.4
20220627025522 30 204 6.4 16.1 0.00 0.00 0.00 32 1012.4
20220627025419 31 250 6.4 16.1 0.00 0.00 0.00 32 1012.4
20220627025318 31 224 6.4 16.1 0.00 0.00 0.00 32 1012.4
20220627025217 31 228 6.4 16.1 0.00 0.00 0.00 32 1012.4
20220627025133 31 207 6.4 14.5 0.00 0.00 0.00 32 1012.4
20220627025113 31 215 6.4 14.5 0.00 0.00 0.00 31 1012.4
20220627025012 31 232 6.4 14.5 0.00 0.00 0.00 31 1012.4
20220627024913 31 201 6.4 14.5 0.00 0.00 0.00 31 1012.4
20220627024812 31 225 6.4 16.1 0.00 0.00 0.00 31 1012.4
20220627024707 31 235 6.4 16.1 0.00 0.00 0.00 31 1012.4
20220627024627 31 250 6.4 16.1 0.00 0.00 0.00 31 1012.4
20220627024606 31 224 6.4 16.1 0.00 0.00 0.00 31 1012.4
20220627024506 31 249 6.4 16.1 0.00 0.00 0.00 31 1012.4
20220627024406 31 232 6.4 16.1 0.00 0.00 0.00 31 1012.5
20220627024306 31 210 6.4 16.1 0.00 0.00 0.00 31 1012.4
20220627024200 31 187 6.4 16.1 0.00 0.00 0.00 31 1012.4
20220627024120 31 219 6.4 16.1 0.00 0.00 0.00 31 1012.4
20220627024100 31 236 6.4 16.1 0.00 0.00 0.00 31 1012.5
20220627024000 31 246 4.8 16.1 0.00 0.00 0.00 31 1012.4
20220627023901 31 232 6.4 16.1 0.00 0.00 0.00 31 1012.4
20220627023801 31 242 6.4 14.5 0.00 0.00 0.00 31 1012.4
20220627023654 31 229 4.8 14.5 0.00 0.00 0.00 31 1012.4
20220627023618 31 215 4.8 12.9 0.00 0.00 0.00 31 1012.4
20220627023554 31 264 4.8 12.9 0.00 0.00 0.00 30 1012.4
20220627023455 31 229 4.8 12.9 0.00 0.00 0.00 30 1012.4
20220627023354 31 212 4.8 12.9 0.00 0.00 0.00 30 1012.4
20220627023254 31 204 6.4 14.5 0.00 0.00 0.00 30 1012.4
20220627023148 31 228 6.4 14.5 0.00 0.00 0.00 30 1012.4
20220627023109 31 221 6.4 14.5 0.00 0.00 0.00 30 1012.4
20220627023048 31 219 6.4 14.5 0.00 0.00 0.00 29 1012.4
20220627022949 31 198 6.4 14.5 0.00 0.00 0.00 29 1012.4
20220627022849 31 204 6.4 14.5 0.00 0.00 0.00 29 1012.4
20220627022751 31 161 6.4 14.5 0.00 0.00 0.00 29 1012.4
20220627022643 32 197 6.4 14.5 0.00 0.00 0.00 28 1012.4
20220627022603 32 218 6.4 14.5 0.00 0.00 0.00 29 1012.4
20220627022542 32 228 6.4 14.5 0.00 0.00 0.00 28 1012.4
20220627022442 32 200 6.4 14.5 0.00 0.00 0.00 28 1012.4
20220627022342 32 181 6.4 14.5 0.00 0.00 0.00 28 1012.4
20220627022242 32 217 6.4 14.5 0.00 0.00 0.00 28 1012.4
20220627022138 32 255 4.8 14.5 0.00 0.00 0.00 28 1012.4
20220627022058 32 240 4.8 14.5 0.00 0.00 0.00 28 1012.4
20220627022038 32 242 4.8 14.5 0.00 0.00 0.00 28 1012.4
20220627021938 32 245 4.8 14.5 0.00 0.00 0.00 28 1012.4
20220627021839 32 225 4.8 14.5 0.00 0.00 0.00 28 1012.4
20220627021736 32 208 4.8 11.3 0.00 0.00 0.00 28 1012.4
20220627021630 32 214 4.8 11.3 0.00 0.00 0.00 28 1012.4
20220627021552 32 229 4.8 11.3 0.00 0.00 0.00 28 1012.4
20220627021531 32 219 4.8 11.3 0.00 0.00 0.00 28 1012.4
20220627021430 32 221 4.8 11.3 0.00 0.00 0.00 27 1012.4
20220627021331 32 205 3.2 11.3 0.00 0.00 0.00 28 1012.3
20220627021231 32 210 4.8 11.3 0.00 0.00 0.00 28 1012.3
20220627021129 32 211 4.8 11.3 0.00 0.00 0.00 28 1012.3
20220627021045 32 185 4.8 11.3 0.00 0.00 0.00 27 1012.3
20220627021027 32 212 4.8 11.3 0.00 0.00 0.00 27 1012.3
20220627020926 32 186 4.8 11.3 0.00 0.00 0.00 27 1012.3
20220627020826 32 115 4.8 11.3 0.00 0.00 0.00 27 1012.3
20220627020724 33 150 4.8 11.3 0.00 0.00 0.00 27 1012.4
20220627020622 33 219 4.8 11.3 0.00 0.00 0.00 27 1012.3
20220627020541 33 226 4.8 11.3 0.00 0.00 0.00 27 1012.3
20220627020521 33 183 4.8 11.3 0.00 0.00 0.00 27 1012.3
20220627020418 33 148 4.8 11.3 0.00 0.00 0.00 26 1012.3
20220627020318 33 194 4.8 11.3 0.00 0.00 0.00 26 1012.3
20220627020218 33 165 4.8 11.3 0.00 0.00 0.00 26 1012.3
20220627020114 33 236 4.8 11.3 0.00 0.00 0.00 26 1012.3
20220627020046 33 245 3.2 9.7 0.00 0.00 0.00 26 1012.3
20220627020015 33 214 3.2 9.7 0.00 0.00 0.00 26 1012.3
20220627015914 33 176 3.2 8.0 0.00 0.00 0.00 26 1012.3
20220627015814 33 217 3.2 8.0 0.00 0.00 0.00 26 1012.3
20220627015712 33 188 3.2 8.0 0.00 0.00 0.00 25 1012.2
20220627015606 33 148 3.2 11.3 0.00 0.00 0.00 25 1012.2
20220627015527 33 218 3.2 11.3 0.00 0.00 0.00 25 1012.2
20220627015506 33 250 3.2 11.3 0.00 0.00 0.00 24 1012.3
20220627015406 33 226 3.2 11.3 0.00 0.00 0.00 24 1012.3
20220627015307 33 246 1.6 11.3 0.00 0.00 0.00 24 1012.3
20220627015206 33 226 1.6 11.3 0.00 0.00 0.00 23 1012.3
20220627015100 33 208 1.6 11.3 0.00 0.00 0.00 23 1012.2
20220627015021 33 221 1.6 11.3 0.00 0.00 0.00 23 1012.2
20220627015001 33 221 1.6 11.3 0.00 0.00 0.00 23 1012.3
20220627014900 33 221 1.6 11.3 0.00 0.00 0.00 22 1012.2
20220627014800 33 187 1.6 11.3 0.00 0.00 0.00 22 1012.2
20220627014700 33 281 3.2 11.3 0.00 0.00 0.00 22 1012.2
20220627014556 33 239 3.2 14.5 0.00 0.00 0.00 22 1012.2
20220627014520 33 217 3.2 14.5 0.00 0.00 0.00 22 1012.2
20220627014456 33 221 3.2 14.5 0.00 0.00 0.00 22 1012.2
20220627014356 33 248 3.2 14.5 0.00 0.00 0.00 21 1012.2
20220627014256 33 280 3.2 14.5 0.00 0.00 0.00 21 1012.3
20220627014154 33 266 4.8 14.5 0.00 0.00 0.00 21 1012.2
20220627014050 33 263 4.8 20.9 0.00 0.00 0.00 21 1012.2
20220627014009 33 231 4.8 20.9 0.00 0.00 0.00 21 1012.2
20220627013948 33 235 4.8 20.9 0.00 0.00 0.00 21 1012.2
20220627013848 34 257 4.8 20.9 0.00 0.00 0.00 21 1012.3
20220627013749 34 176 4.8 20.9 0.00 0.00 0.00 22 1012.2
20220627013649 34 222 4.8 20.9 0.00 0.00 0.00 21 1012.2
20220627013543 34 260 3.2 20.9 0.00 0.00 0.00 21 1012.2
20220627013504 34 219 3.2 20.9 0.00 0.00 0.00 21 1012.2
20220627013442 34 212 3.2 20.9 0.00 0.00 0.00 21 1012.2
20220627013342 34 221 3.2 20.9 0.00 0.00 0.00 20 1012.2
20220627013242 34 219 3.2 20.9 0.00 0.00 0.00 21 1012.2
20220627013142 34 203 3.2 20.9 0.00 0.00 0.00 20 1012.2
20220627013039 34 192 1.6 14.5 0.00 0.00 0.00 22 1012.2
20220627012958 34 225 1.6 9.7 0.00 0.00 0.00 22 1012.2
20220627012937 34 169 1.6 9.7 0.00 0.00 0.00 22 1012.2
20220627012836 34 190 1.6 9.7 0.00 0.00 0.00 21 1012.2
20220627012736 34 233 1.6 9.7 0.00 0.00 0.00 21 1012.2
20220627012638 34 230 1.6 9.7 0.00 0.00 0.00 21 1012.2
20220627012534 34 278 1.6 8.0 0.00 0.00 0.00 20 1012.1
20220627012453 34 204 1.6 6.4 0.00 0.00 0.00 21 1012.1
20220627012430 34 226 1.6 6.4 0.00 0.00 0.00 21 1012.1
20220627012330 35 194 1.6 6.4 0.00 0.00 0.00 22 1012.1
20220627012230 35 247 1.6 6.4 0.00 0.00 0.00 22 1012.1
20220627012130 35 188 1.6 4.8 0.00 0.00 0.00 21 1012.1
20220627012029 35 243 1.6 16.1 0.00 0.00 0.00 21 1012.1
20220627011945 35 246 1.6 16.1 0.00 0.00 0.00 21 1012.0
20220627011928 35 297 1.6 16.1 0.00 0.00 0.00 21 1012.0
20220627011826 35 280 1.6 16.1 0.00 0.00 0.00 20 1012.0
20220627011727 35 284 1.6 16.1 0.00 0.00 0.00 22 1012.1
20220627011624 35 263 1.6 16.1 0.00 0.00 0.00 21 1012.1
20220627011524 35 127 1.6 16.1 0.00 0.00 0.00 22 1012.0
20220627011422 35 127 3.2 16.1 0.00 0.00 0.00 21 1012.1
20220627011322 35 127 3.2 16.1 0.00 0.00 0.00 21 1012.0
20220627011220 35 210 4.8 16.1 0.00 0.00 0.00 20 1012.0
20220627011117 35 229 4.8 16.1 0.00 0.00 0.00 20 1012.0
20220627011014 35 291 4.8 19.3 0.00 0.00 0.00 20 1012.0
20220627010933 35 236 4.8 19.3 0.00 0.00 0.00 20 1012.0
20220627010913 35 226 4.8 19.3 0.00 0.00 0.00 20 1012.0
20220627010812 35 232 4.8 19.3 0.00 0.00 0.00 20 1012.0
20220627010715 35 277 6.4 19.3 0.00 0.00 0.00 19 1012.1
20220627010614 35 270 6.4 19.3 0.00 0.00 0.00 19 1012.1
20220627010509 35 222 6.4 19.3 0.00 0.00 0.00 19 1012.1
20220627010428 35 217 6.4 19.3 0.00 0.00 0.00 19 1012.1
20220627010406 35 246 6.4 19.3 0.00 0.00 0.00 19 1012.1
20220627010307 35 150 4.8 19.3 0.00 0.00 0.00 19 1012.1
20220627010206 35 207 4.8 19.3 0.00 0.00 0.00 19 1012.0
20220627010106 35 195 4.8 19.3 0.00 0.00 0.00 19 1012.1
20220627010000 35 221 4.8 11.3 0.00 0.00 0.00 20 1012.1
20220627005921 35 238 4.8 11.3 0.00 0.00 0.00 19 1012.1
20220627005901 35 231 4.8 11.3 0.00 0.00 0.00 19 1012.1
20220627005801 35 219 3.2 11.3 0.00 0.00 0.00 19 1012.0
20220627005700 35 215 3.2 9.7 0.00 0.00 0.00 19 1012.1
20220627005600 35 226 3.2 9.7 0.00 0.00 0.00 19 1012.1
20220627005454 35 257 1.6 9.7 0.00 0.00 0.00 19 1012.1
20220627005415 35 239 1.6 9.7 0.00 0.00 0.00 19 1012.1
20220627005356 35 194 3.2 9.7 0.00 0.00 0.00 19 1012.1
20220627005254 35 204 3.2 9.7 0.00 0.00 0.00 19 1012.1
20220627005154 35 243 1.6 9.7 0.00 0.00 0.00 18 1012.1
20220627005054 35 229 1.6 9.7 0.00 0.00 0.00 19 1012.1
20220627004950 35 236 1.6 12.9 0.00 0.00 0.00 19 1012.1
20220627004909 35 238 1.6 12.9 0.00 0.00 0.00 19 1012.1
20220627004849 35 312 1.6 12.9 0.00 0.00 0.00 19 1012.1
20220627004752 35 240 1.6 12.9 0.00 0.00 0.00 19 1012.1
20220627004648 35 259 3.2 12.9 0.00 0.00 0.00 19 1012.1
20220627004548 35 233 3.2 12.9 0.00 0.00 0.00 19 1012.0
20220627004444 36 232 3.2 12.9 0.00 0.00 0.00 19 1012.1
20220627004403 36 232 3.2 12.9 0.00 0.00 0.00 18 1012.1
20220627004342 36 134 3.2 12.9 0.00 0.00 0.00 18 1012.1
20220627004242 36 222 3.2 12.9 0.00 0.00 0.00 18 1012.1
20220627004142 36 262 3.2 12.9 0.00 0.00 0.00 18 1012.1
20220627004042 36 221 3.2 12.9 0.00 0.00 0.00 19 1012.1
20220627003938 36 248 3.2 12.9 0.00 0.00 0.00 18 1012.1
20220627003858 36 193 3.2 12.9 0.00 0.00 0.00 18 1012.1
20220627003836 36 295 3.2 12.9 0.00 0.00 0.00 18 1012.1
20220627003736 36 305 3.2 11.3 0.00 0.00 0.00 18 1012.1
20220627003638 36 126 3.2 11.3 0.00 0.00 0.00 18 1012.1
20220627003537 36 242 3.2 12.9 0.00 0.00 0.00 18 1012.1
20220627003430 36 226 1.6 12.9 0.00 0.00 0.00 18 1012.1
20220627003330 36 267 1.6 12.9 0.00 0.00 0.00 18 1012.1
20220627003230 36 215 1.6 12.9 0.00 0.00 0.00 18 1012.1
20220627003131 36 174 1.6 12.9 0.00 0.00 0.00 18 1012.1
20220627003031 36 250 1.6 12.9 0.00 0.00 0.00 18 1012.1
20220627002929 36 215 1.6 12.9 0.00 0.00 0.00 18 1012.1
20220627002845 36 262 1.6 12.9 0.00 0.00 0.00 18 1012.1
20220627002825 36 173 1.6 12.9 0.00 0.00 0.00 18 1012.1
20220627002724 37 222 1.6 12.9 0.00 0.00 0.00 17 1012.0
20220627002625 37 171 1.6 9.7 0.00 0.00 0.00 18 1012.1
20220627002524 37 214 1.6 9.7 0.00 0.00 0.00 18 1012.1
20220627002423 37 214 3.2 9.7 0.00 0.00 0.00 18 1012.1
20220627002323 37 264 1.6 9.7 0.00 0.00 0.00 18 1012.1
20220627002222 37 240 1.6 9.7 0.00 0.00 0.00 18 1012.1
20220627002120 37 169 1.6 9.7 0.00 0.00 0.00 18 1012.1
20220627002017 37 204 1.6 9.7 0.00 0.00 0.00 17 1012.1
20220627001916 37 240 1.6 8.0 0.00 0.00 0.00 17 1012.1
20220627001833 37 161 1.6 8.0 0.00 0.00 0.00 17 1012.1
20220627001817 37 184 1.6 6.4 0.00 0.00 0.00 18 1012.1
20220627001718 37 219 1.6 9.7 0.00 0.00 0.00 17 1012.1
20220627001615 37 225 1.6 9.7 0.00 0.00 0.00 17 1012.1
20220627001515 37 186 1.6 11.3 0.00 0.00 0.00 17 1012.1
20220627001406 37 201 1.6 11.3 0.00 0.00 0.00 16 1012.1
20220627001307 37 201 1.6 11.3 0.00 0.00 0.00 16 1012.1
20220627001206 37 201 1.6 11.3 0.00 0.00 0.00 16 1012.1
20220627001106 37 232 3.2 12.9 0.00 0.00 0.00 16 1012.1
20220627001005 37 232 3.2 12.9 0.00 0.00 0.00 16 1012.1
20220627000901 37 246 3.2 12.9 0.00 0.00 0.00 15 1012.2
20220627000821 37 309 3.2 12.9 0.00 0.00 0.00 15 1012.2
20220627000800 37 236 4.8 12.9 0.00 0.00 0.00 15 1012.2
20220627000700 37 253 4.8 12.9 0.00 0.00 0.00 15 1012.2
20220627000601 37 226 4.8 17.7 0.00 0.00 0.00 15 1012.2
20220627000500 37 266 6.4 17.7 0.00 0.00 0.00 15 1012.1
20220627000356 37 309 6.4 17.7 0.00 0.00 0.00 15 1012.2
20220627000315 37 222 6.4 17.7 0.00 0.00 0.00 15 1012.2
20220627000254 37 255 6.4 17.7 0.00 0.00 0.00 15 1012.3
20220627000154 37 180 6.4 17.7 0.00 0.00 0.00 15 1012.2
20220627000055 37 200 6.4 17.7 0.00 0.00 0.00 15 1012.3
20220626235954 37 195 6.4 17.7 0.00 0.00 0.00 15 1012.2
20220626235849 37 200 6.4 17.7 0.00 0.00 0.00 14 1012.3
20220626235810 37 248 6.4 17.7 0.00 0.00 0.00 14 1012.3
20220626235748 37 217 6.4 17.7 0.00 0.00 0.00 14 1012.3
20220626235648 37 224 6.4 17.7 0.00 0.00 0.00 14 1012.3
20220626235549 37 240 4.8 16.1 0.00 0.00 0.00 14 1012.3
20220626235448 37 190 4.8 16.1 0.00 0.00 0.00 14 1012.3
20220626235344 37 257 4.8 16.1 0.00 0.00 0.00 13 1012.3
20220626235304 37 239 4.8 16.1 0.00 0.00 0.00 13 1012.3
20220626235244 37 242 4.8 16.1 0.00 0.00 0.00 14 1012.3
20220626235144 37 225 4.8 16.1 0.00 0.00 0.00 13 1012.3
20220626235044 37 190 4.8 16.1 0.00 0.00 0.00 13 1012.4
20220626234941 37 231 4.8 12.9 0.00 0.00 0.00 12 1012.4
20220626234839 37 142 4.8 12.9 0.00 0.00 0.00 14 1012.3
20220626234757 37 215 4.8 12.9 0.00 0.00 0.00 14 1012.4
20220626234736 37 231 4.8 12.9 0.00 0.00 0.00 13 1012.4
20220626234637 38 249 4.8 12.9 0.00 0.00 0.00 13 1012.4
20220626234536 38 212 3.2 12.9 0.00 0.00 0.00 14 1012.4
20220626234437 38 225 4.8 12.9 0.00 0.00 0.00 14 1012.4
20220626234333 38 221 3.2 12.9 0.00 0.00 0.00 15 1012.4
20220626234251 38 200 3.2 12.9 0.00 0.00 0.00 15 1012.4
20220626234232 38 221 3.2 12.9 0.00 0.00 0.00 14 1012.4
20220626234132 38 236 3.2 12.9 0.00 0.00 0.00 14 1012.4
20220626234032 38 235 3.2 12.9 0.00 0.00 0.00 15 1012.4
20220626233929 38 215 3.2 12.9 0.00 0.00 0.00 15 1012.4
20220626233827 38 302 3.2 12.9 0.00 0.00 0.00 16 1012.4
20220626233745 38 217 3.2 12.9 0.00 0.00 0.00 16 1012.5
20220626233724 38 217 3.2 12.9 0.00 0.00 0.00 15 1012.5
20220626233625 38 150 3.2 12.9 0.00 0.00 0.00 16 1012.5
20220626233524 38 236 3.2 12.9 0.00 0.00 0.00 15 1012.5
20220626233424 38 236 3.2 12.9 0.00 0.00 0.00 15 1012.5
20220626233318 38 219 3.2 12.9 0.00 0.00 0.00 15 1012.5
20220626233240 38 242 3.2 12.9 0.00 0.00 0.00 15 1012.5
20220626233218 38 226 3.2 12.9 0.00 0.00 0.00 15 1012.5
20220626233118 38 205 1.6 12.9 0.00 0.00 0.00 14 1012.5
20220626233018 38 253 1.6 9.7 0.00 0.00 0.00 14 1012.5
20220626232917 38 274 1.6 14.5 0.00 0.00 0.00 14 1012.5
20220626232815 38 233 1.6 14.5 0.00 0.00 0.00 14 1012.5
20220626232733 38 240 1.6 14.5 0.00 0.00 0.00 14 1012.5
20220626232715 38 200 1.6 14.5 0.00 0.00 0.00 14 1012.5
20220626232611 38 236 1.6 14.5 0.00 0.00 0.00 14 1012.6
20220626232512 38 229 1.6 14.5 0.00 0.00 0.00 14 1012.5
20220626232412 38 222 1.6 14.5 0.00 0.00 0.00 14 1012.5
20220626232306 38 277 1.6 14.5 0.00 0.00 0.00 14 1012.5
20220626232227 38 179 1.6 14.5 0.00 0.00 0.00 14 1012.5
20220626232207 38 225 1.6 14.5 0.00 0.00 0.00 14 1012.5
20220626232106 38 226 1.6 14.5 0.00 0.00 0.00 13 1012.6
20220626232007 38 283 1.6 14.5 0.00 0.00 0.00 13 1012.7
20220626231907 38 210 1.6 12.9 0.00 0.00 0.00 15 1012.6
20220626231802 38 218 1.6 12.9 0.00 0.00 0.00 14 1012.7
20220626231721 38 219 1.6 12.9 0.00 0.00 0.00 13 1012.7
20220626231701 38 219 1.6 12.9 0.00 0.00 0.00 14 1012.6
20220626231602 38 224 3.2 12.9 0.00 0.00 0.00 14 1012.7
20220626231500 38 297 3.2 16.1 0.00 0.00 0.00 14 1012.7
20220626231400 38 224 4.8 16.1 0.00 0.00 0.00 14 1012.7
20220626231256 38 239 4.8 19.3 0.00 0.00 0.00 14 1012.7
20220626231215 37 247 4.8 19.3 0.00 0.00 0.00 14 1012.7
20220626231154 37 208 4.8 19.3 0.00 0.00 0.00 14 1012.7
20220626231054 37 200 4.8 19.3 0.00 0.00 0.00 14 1012.7
20220626230954 37 214 4.8 19.3 0.00 0.00 0.00 15 1012.7
20220626230854 37 210 4.8 19.3 0.00 0.00 0.00 14 1012.7
20220626230751 37 262 4.8 19.3 0.00 0.00 0.00 14 1012.8
20220626230709 37 235 4.8 19.3 0.00 0.00 0.00 14 1012.8
20220626230648 37 215 4.8 19.3 0.00 0.00 0.00 14 1012.8
20220626230548 37 204 4.8 19.3 0.00 0.00 0.00 14 1012.8
20220626230448 37 214 4.8 19.3 0.00 0.00 0.00 14 1012.8
20220626230348 37 219 3.2 19.3 0.00 0.00 0.00 14 1012.8
20220626230244 37 190 3.2 14.5 0.00 0.00 0.00 14 1012.8
20220626230203 37 148 3.2 14.5 0.00 0.00 0.00 14 1012.8
20220626230142 37 211 3.2 14.5 0.00 0.00 0.00 14 1012.8
20220626230042 37 207 4.8 14.5 0.00 0.00 0.00 14 1012.8
20220626225942 37 200 4.8 14.5 0.00 0.00 0.00 15 1012.8
20220626225842 37 197 4.8 14.5 0.00 0.00 0.00 14 1012.8
20220626225738 37 231 4.8 14.5 0.00 0.00 0.00 15 1012.8
20220626225658 37 262 6.4 14.5 0.00 0.00 0.00 16 1012.8
20220626225638 37 226 6.4 14.5 0.00 0.00 0.00 16 1012.8
20220626225538 37 311 6.4 14.5 0.00 0.00 0.00 16 1012.8
20220626225438 37 264 6.4 14.5 0.00 0.00 0.00 16 1012.8
20220626225337 37 208 6.4 14.5 0.00 0.00 0.00 15 1012.9
20220626225234 37 243 6.4 14.5 0.00 0.00 0.00 16 1012.9
20220626225152 37 247 6.4 14.5 0.00 0.00 0.00 15 1012.9
20220626225132 37 153 6.4 14.5 0.00 0.00 0.00 15 1012.9
20220626225032 37 193 6.4 14.5 0.00 0.00 0.00 16 1012.9
20220626224933 37 232 6.4 14.5 0.00 0.00 0.00 16 1012.9
20220626224829 37 194 4.8 14.5 0.00 0.00 0.00 16 1013.0
20220626224724 37 194 4.8 14.5 0.00 0.00 0.00 15 1012.9
20220626224645 37 222 4.8 14.5 0.00 0.00 0.00 16 1012.9
20220626224625 37 246 4.8 14.5 0.00 0.00 0.00 16 1012.9
20220626224524 37 262 4.8 14.5 0.00 0.00 0.00 16 1013.0
20220626224424 37 252 6.4 14.5 0.00 0.00 0.00 16 1013.0
20220626224325 37 224 6.4 14.5 0.00 0.00 0.00 16 1012.9
20220626224218 37 221 6.4 12.9 0.00 0.00 0.00 16 1013.0
20220626224139 37 245 6.4 12.9 0.00 0.00 0.00 16 1013.0
20220626224118 37 154 6.4 12.9 0.00 0.00 0.00 16 1013.0
20220626224019 37 224 6.4 12.9 0.00 0.00 0.00 17 1012.9
20220626223925 37 291 4.8 12.9 0.00 0.00 0.00 16 1013.0
20220626223818 37 217 4.8 12.9 0.00 0.00 0.00 16 1013.0
20220626223715 37 214 4.8 12.9 0.00 0.00 0.00 15 1013.0
20220626223634 37 274 4.8 12.9 0.00 0.00 0.00 15 1013.0
20220626223612 37 242 4.8 12.9 0.00 0.00 0.00 15 1013.0
20220626223512 37 245 3.2 12.9 0.00 0.00 0.00 16 1013.0
20220626223413 37 213 3.2 12.9 0.00 0.00 0.00 15 1013.0
20220626223312 38 249 3.2 12.9 0.00 0.00 0.00 14 1013.0
20220626223206 38 250 1.6 12.9 0.00 0.00 0.00 14 1013.0
20220626223127 38 277 1.6 12.9 0.00 0.00 0.00 15 1013.0
20220626223106 38 238 1.6 12.9 0.00 0.00 0.00 15 1013.0
20220626223006 38 191 1.6 9.7 0.00 0.00 0.00 15 1013.0
20220626222906 38 138 1.6 9.7 0.00 0.00 0.00 14 1013.0
20220626222806 38 221 1.6 9.7 0.00 0.00 0.00 15 1013.1
20220626222700 38 302 1.6 9.7 0.00 0.00 0.00 14 1013.1
20220626222622 38 231 1.6 9.7 0.00 0.00 0.00 16 1013.1
20220626222602 38 188 1.6 6.4 0.00 0.00 0.00 16 1013.1
20220626222502 38 314 1.6 6.4 0.00 0.00 0.00 16 1013.0
20220626222400 38 293 1.6 6.4 0.00 0.00 0.00 15 1013.1
20220626222301 37 248 3.2 9.7 0.00 0.00 0.00 15 1013.1
20220626222157 37 243 3.2 9.7 0.00 0.00 0.00 16 1013.1
20220626222115 37 240 3.2 12.9 0.00 0.00 0.00 16 1013.1
20220626222055 37 185 3.2 12.9 0.00 0.00 0.00 16 1013.1
20220626221954 37 257 3.2 12.9 0.00 0.00 0.00 17 1013.1
20220626221855 37 266 4.8 12.9 0.00 0.00 0.00 16 1013.1
20220626221754 37 197 3.2 12.9 0.00 0.00 0.00 15 1013.1
20220626221652 37 297 3.2 12.9 0.00 0.00 0.00 16 1013.1
20220626221610 37 233 3.2 12.9 0.00 0.00 0.00 16 1013.1
20220626221550 37 158 3.2 12.9 0.00 0.00 0.00 16 1013.1
20220626221450 37 179 3.2 12.9 0.00 0.00 0.00 17 1013.1
20220626221350 37 226 3.2 12.9 0.00 0.00 0.00 16 1013.2
20220626221248 37 210 3.2 12.9 0.00 0.00 0.00 17 1013.1
20220626221146 37 173 3.2 12.9 0.00 0.00 0.00 17 1013.1
20220626221104 37 214 3.2 11.3 0.00 0.00 0.00 17 1013.1
20220626221042 37 302 3.2 11.3 0.00 0.00 0.00 17 1013.1
20220626220943 37 239 3.2 11.3 0.00 0.00 0.00 17 1013.1
20220626220842 37 229 3.2 11.3 0.00 0.00 0.00 18 1013.1
20220626220742 37 248 3.2 11.3 0.00 0.00 0.00 18 1013.1
20220626220636 37 161 3.2 11.3 0.00 0.00 0.00 19 1013.1
20220626220612 37 267 3.2 11.3 0.00 0.00 0.00 19 1013.1
20220626220536 37 262 3.2 11.3 0.00 0.00 0.00 19 1013.1
20220626220436 37 316 3.2 11.3 0.00 0.00 0.00 19 1013.1
20220626220336 37 226 4.8 16.1 0.00 0.00 0.00 19 1013.1
20220626220236 37 193 3.2 16.1 0.00 0.00 0.00 19 1013.1
20220626220133 37 163 3.2 16.1 0.00 0.00 0.00 18 1013.1
20220626220105 37 200 3.2 16.1 0.00 0.00 0.00 20 1013.1
20220626220031 37 221 3.2 16.1 0.00 0.00 0.00 20 1013.1
20220626215930 37 246 4.8 16.1 0.00 0.00 0.00 20 1013.2
20220626215830 37 197 4.8 16.1 0.00 0.00 0.00 19 1013.1
20220626215730 37 256 4.8 16.1 0.00 0.00 0.00 20 1013.1
20220626215624 37 309 4.8 16.1 0.00 0.00 0.00 20 1013.1
20220626215546 37 263 4.8 16.1 0.00 0.00 0.00 19 1013.2
20220626215524 37 242 4.8 16.1 0.00 0.00 0.00 19 1013.2
20220626215424 37 131 4.8 16.1 0.00 0.00 0.00 19 1013.2
20220626215324 37 250 3.2 14.5 0.00 0.00 0.00 19 1013.2
20220626215224 37 143 3.2 14.5 0.00 0.00 0.00 20 1013.2
20220626215122 37 255 3.2 14.5 0.00 0.00 0.00 19 1013.2
20220626215040 37 212 3.2 14.5 0.00 0.00 0.00 19 1013.3
20220626215020 37 235 3.2 14.5 0.00 0.00 0.00 19 1013.3
20220626214920 37 235 3.2 14.5 0.00 0.00 0.00 19 1013.2
20220626214821 37 186 1.6 9.7 0.00 0.00 0.00 19 1013.2
20220626214719 37 150 1.6 8.0 0.00 0.00 0.00 20 1013.2
20220626214614 37 150 3.2 8.0 0.00 0.00 0.00 20 1013.2
20220626214548 37 290 3.2 8.0 0.00 0.00 0.00 19 1013.3
20220626214512 37 269 3.2 8.0 0.00 0.00 0.00 19 1013.3
20220626214412 37 215 3.2 8.0 0.00 0.00 0.00 20 1013.3
20220626214214 37 239 3.2 8.0 0.00 0.00 0.00 20 1013.3
20220626214108 37 300 3.2 8.0 0.00 0.00 0.00 19 1013.3
20220626214039 37 255 3.2 8.0 0.00 0.00 0.00 19 1013.3
20220626214006 37 221 3.2 8.0 0.00 0.00 0.00 19 1013.3
20220626213907 37 264 3.2 8.0 0.00 0.00 0.00 20 1013.4
20220626213806 37 208 3.2 8.0 0.00 0.00 0.00 19 1013.3
20220626213705 37 254 3.2 8.0 0.00 0.00 0.00 19 1013.4
20220626213602 37 167 3.2 8.0 0.00 0.00 0.00 18 1013.4
20220626213535 37 219 3.2 8.0 0.00 0.00 0.00 18 1013.4
20220626213502 37 239 1.6 8.0 0.00 0.00 0.00 18 1013.4
20220626213400 37 168 1.6 8.0 0.00 0.00 0.00 19 1013.4
20220626213300 37 270 1.6 8.0 0.00 0.00 0.00 19 1013.4
20220626213200 37 267 1.6 8.0 0.00 0.00 0.00 19 1013.4
20220626213055 37 311 3.2 11.3 0.00 0.00 0.00 20 1013.4
20220626213028 37 276 3.2 11.3 0.00 0.00 0.00 20 1013.4
20220626212954 37 256 3.2 11.3 0.00 0.00 0.00 20 1013.4
20220626212855 37 180 3.2 11.3 0.00 0.00 0.00 19 1013.4
20220626212754 37 276 3.2 11.3 0.00 0.00 0.00 19 1013.4
20220626212655 37 217 3.2 11.3 0.00 0.00 0.00 19 1013.4
20220626212553 37 256 3.2 11.3 0.00 0.00 0.00 19 1013.4
20220626212522 37 266 3.2 11.3 0.00 0.00 0.00 19 1013.4
20220626212450 37 266 3.2 11.3 0.00 0.00 0.00 19 1013.4
20220626212350 37 235 3.2 11.3 0.00 0.00 0.00 19 1013.4
20220626212251 36 302 3.2 11.3 0.00 0.00 0.00 19 1013.4
20220626212148 36 222 4.8 11.3 0.00 0.00 0.00 18 1013.5
20220626212042 36 172 4.8 11.3 0.00 0.00 0.00 18 1013.5
20220626212016 36 252 4.8 11.3 0.00 0.00 0.00 18 1013.5
20220626211942 36 212 4.8 11.3 0.00 0.00 0.00 18 1013.5
20220626211842 36 228 4.8 11.3 0.00 0.00 0.00 18 1013.5
20220626211742 36 204 4.8 11.3 0.00 0.00 0.00 19 1013.5
20220626211642 36 193 4.8 11.3 0.00 0.00 0.00 19 1013.5
20220626211539 36 273 6.4 12.9 0.00 0.00 0.00 19 1013.4
20220626211512 36 217 6.4 12.9 0.00 0.00 0.00 19 1013.5
20220626211436 36 193 6.4 12.9 0.00 0.00 0.00 21 1013.5
20220626211336 36 214 4.8 12.9 0.00 0.00 0.00 19 1013.5
20220626211237 36 170 4.8 12.9 0.00 0.00 0.00 19 1013.5
20220626211137 36 153 4.8 12.9 0.00 0.00 0.00 18 1013.5
20220626211034 36 184 4.8 12.9 0.00 0.00 0.00 18 1013.5
20220626211005 36 238 3.2 12.9 0.00 0.00 0.00 18 1013.5
20220626210929 36 238 3.2 12.9 0.00 0.00 0.00 19 1013.5
20220626210831 36 225 3.2 12.9 0.00 0.00 0.00 20 1013.5
20220626210730 36 142 3.2 12.9 0.00 0.00 0.00 20 1013.5
20220626210630 36 242 3.2 12.9 0.00 0.00 0.00 19 1013.5
20220626210524 36 264 3.2 9.7 0.00 0.00 0.00 20 1013.5
20220626210445 36 247 3.2 9.7 0.00 0.00 0.00 20 1013.5
20220626210424 36 210 3.2 9.7 0.00 0.00 0.00 21 1013.5
20220626210324 36 204 3.2 9.7 0.00 0.00 0.00 21 1013.5
20220626210224 36 195 3.2 11.3 0.00 0.00 0.00 21 1013.5
20220626210124 36 194 3.2 11.3 0.00 0.00 0.00 20 1013.5
20220626210024 36 217 4.8 11.3 0.00 0.00 0.00 22 1013.5
20220626205939 36 143 4.8 11.3 0.00 0.00 0.00 22 1013.5
20220626205922 36 179 4.8 11.3 0.00 0.00 0.00 21 1013.5
20220626205822 36 210 4.8 11.3 0.00 0.00 0.00 22 1013.5
20220626205720 36 205 4.8 11.3 0.00 0.00 0.00 22 1013.5
20220626205618 36 217 3.2 11.3 0.00 0.00 0.00 22 1013.5
20220626205512 36 214 3.2 11.3 0.00 0.00 0.00 22 1013.5
20220626205433 36 217 3.2 11.3 0.00 0.00 0.00 22 1013.5
20220626205412 36 283 3.2 11.3 0.00 0.00 0.00 22 1013.5
20220626205312 36 253 3.2 11.3 0.00 0.00 0.00 23 1013.5
20220626205215 37 136 3.2 9.7 0.00 0.00 0.00 22 1013.5
20220626205112 37 219 1.6 9.7 0.00 0.00 0.00 23 1013.6
20220626205009 37 182 1.6 9.7 0.00 0.00 0.00 23 1013.6
20220626204928 37 221 1.6 9.7 0.00 0.00 0.00 23 1013.6
20220626204909 37 212 1.6 9.7 0.00 0.00 0.00 24 1013.6
20220626204808 37 269 1.6 6.4 0.00 0.00 0.00 25 1013.5
20220626204709 37 238 0.0 6.4 0.00 0.00 0.00 25 1013.6
20220626204606 37 266 1.6 6.4 0.00 0.00 0.00 26 1013.6
20220626204503 37 280 1.6 6.4 0.00 0.00 0.00 25 1013.6
20220626204434 37 134 1.6 6.4 0.00 0.00 0.00 25 1013.6
20220626204401 37 201 1.6 4.8 0.00 0.00 0.00 25 1013.6
20220626204300 37 332 1.6 3.2 0.00 0.00 0.00 25 1013.6
20220626204200 37 341 1.6 3.2 0.00 0.00 0.00 26 1013.6
20220626204059 36 222 1.6 3.2 0.00 0.00 0.00 25 1013.6
20220626203954 36 262 1.6 3.2 0.00 0.00 0.00 25 1013.7
20220626203929 36 283 1.6 6.4 0.00 0.00 0.00 25 1013.7
20220626203854 36 283 1.6 6.4 0.00 0.00 0.00 25 1013.7
20220626203754 36 226 1.6 6.4 0.00 0.00 0.00 26 1013.6
20220626203655 36 204 1.6 6.4 0.00 0.00 0.00 26 1013.6
20220626203557 36 20 1.6 6.4 0.00 0.00 0.00 26 1013.6
20220626203450 36 291 1.6 6.4 0.00 0.00 0.00 26 1013.6
20220626203422 36 208 1.6 6.4 0.00 0.00 0.00 26 1013.7
20220626203348 36 226 1.6 6.4 0.00 0.00 0.00 26 1013.7
20220626203248 36 288 1.6 6.4 0.00 0.00 0.00 27 1013.6
20220626203148 36 316 1.6 6.4 0.00 0.00 0.00 26 1013.6
20220626203048 36 138 1.6 6.4 0.00 0.00 0.00 27 1013.7
20220626202944 36 134 1.6 6.4 0.00 0.00 0.00 26 1013.7
20220626202910 36 279 1.6 6.4 0.00 0.00 0.00 26 1013.7
20220626202842 36 222 1.6 6.4 0.00 0.00 0.00 25 1013.7
20220626202743 36 307 1.6 6.4 0.00 0.00 0.00 25 1013.7
20220626202643 36 330 1.6 6.4 0.00 0.00 0.00 24 1013.7
20220626202541 36 321 1.6 6.4 0.00 0.00 0.00 26 1013.8
20220626202438 35 311 1.6 6.4 0.00 0.00 0.00 26 1013.7
20220626202408 35 311 1.6 6.4 0.00 0.00 0.00 26 1013.7
20220626202338 35 339 1.6 11.3 0.00 0.00 0.00 26 1013.7
20220626202238 35 243 3.2 11.3 0.00 0.00 0.00 26 1013.8
20220626202138 35 219 3.2 11.3 0.00 0.00 0.00 26 1013.8
20220626202036 35 245 3.2 11.3 0.00 0.00 0.00 27 1013.8
20220626201931 35 211 3.2 11.3 0.00 0.00 0.00 27 1013.7
20220626201908 35 221 3.2 11.3 0.00 0.00 0.00 28 1013.7
20220626201830 34 240 3.2 11.3 0.00 0.00 0.00 28 1013.8
20220626201730 34 248 3.2 11.3 0.00 0.00 0.00 28 1013.8
20220626201630 34 217 3.2 11.3 0.00 0.00 0.00 29 1013.8
20220626201531 34 217 3.2 11.3 0.00 0.00 0.00 28 1013.8
20220626201426 34 311 3.2 11.3 0.00 0.00 0.00 27 1013.8
20220626201410 35 315 3.2 11.3 0.00 0.00 0.00 27 1013.8
20220626201324 35 321 1.6 8.0 0.00 0.00 0.00 28 1013.8
20220626201225 35 332 1.6 8.0 0.00 0.00 0.00 27 1013.8
20220626201126 35 286 1.6 8.0 0.00 0.00 0.00 26 1013.8
20220626201024 35 307 1.6 8.0 0.00 0.00 0.00 26 1013.9
20220626200924 35 188 1.6 8.0 0.00 0.00 0.00 27 1013.9
20220626200908 35 188 1.6 8.0 0.00 0.00 0.00 27 1013.8
20220626200822 35 189 1.6 8.0 0.00 0.00 0.00 26 1013.8
20220626200722 35 238 1.6 8.0 0.00 0.00 0.00 25 1013.9